DW3740 Weather Reports


Display with metric or nautical units.
time (UTC)temp
F
wind
direction
speed
MPH
gust
MPH
rain 1hr
in
rain 24hr
in
rain mn
in
humidity
%
barometer
mb
20190116163526 41 360 0.0 1.0 0.00 0.00 0.00 68 1012.4
20190116163418 41 360 0.0 2.0 0.00 0.00 0.00 68 1012.3
20190116163329 41 360 0.0 2.0 0.00 0.00 0.00 67 1012.3
20190116163229 41 360 0.0 2.0 0.00 0.00 0.00 67 1012.3
20190116163123 41 360 0.0 2.0 0.00 0.00 0.00 67 1012.2
20190116163033 41 360 0.0 2.0 0.00 0.00 0.00 67 1012.2
20190116162922 41 360 0.0 5.0 0.00 0.00 0.00 66 1012.2
20190116162833 41 360 0.0 5.0 0.00 0.00 0.00 66 1012.2
20190116162723 41 360 0.0 5.0 0.00 0.00 0.00 66 1012.2
20190116162618 41 360 0.0 5.0 0.00 0.00 0.00 66 1012.2
20190116162528 41 360 0.0 5.0 0.00 0.00 0.00 67 1012.2
20190116162418 41 360 1.0 5.0 0.00 0.00 0.00 66 1012.3
20190116162328 41 360 0.0 5.0 0.00 0.00 0.00 66 1012.3
20190116162218 42 360 0.0 5.0 0.00 0.00 0.00 66 1012.2
20190116162128 42 360 1.0 5.0 0.00 0.00 0.00 66 1012.2
20190116162023 42 360 2.0 5.0 0.00 0.00 0.00 66 1012.1
20190116161933 42 15 0.0 2.0 0.00 0.00 0.00 66 1012.1
20190116161827 42 16 0.0 2.0 0.00 0.00 0.00 66 1012.1
20190116161726 42 360 0.0 2.0 0.00 0.00 0.00 66 1012.0
20190116161617 42 360 0.0 2.0 0.00 0.00 0.00 66 1012.1
20190116161531 42 360 0.0 2.0 0.00 0.00 0.00 66 1012.1
20190116161422 42 360 1.0 2.0 0.00 0.00 0.00 66 1012.0
20190116161333 42 5 1.0 2.0 0.00 0.00 0.00 65 1012.0
20190116161222 42 17 0.0 2.0 0.00 0.00 0.00 65 1011.9
20190116161132 42 17 0.0 2.0 0.00 0.00 0.00 65 1011.9
20190116161021 42 360 0.0 2.0 0.00 0.00 0.00 65 1011.9
20190116160916 42 360 1.0 2.0 0.00 0.00 0.00 65 1011.9
20190116160827 42 360 1.0 2.0 0.00 0.00 0.00 65 1011.9
20190116160716 42 360 0.0 2.0 0.00 0.00 0.00 65 1011.9
20190116160626 42 11 0.0 3.0 0.00 0.00 0.00 65 1011.9
20190116160517 42 11 0.0 7.0 0.00 0.00 0.00 65 1011.9
20190116160446 42 11 0.0 7.0 0.00 0.00 0.00 65 1011.9
20190116160344 42 11 1.0 7.0 0.00 0.00 0.00 65 1012.0
20190116160223 42 9 1.0 7.0 0.00 0.00 0.00 65 1011.9
20190116160135 42 9 1.0 7.0 0.00 0.00 0.00 65 1011.9
20190116160024 42 15 1.0 7.0 0.00 0.00 0.00 65 1011.9
20190116155934 42 360 1.0 7.0 0.00 0.00 0.00 65 1011.9
20190116155828 42 360 2.0 7.0 0.00 0.00 0.00 65 1011.8
20190116155719 42 360 3.0 7.0 0.00 0.00 0.00 65 1011.8
20190116155630 42 360 1.0 4.0 0.00 0.00 0.00 65 1011.8
20190116155520 42 360 1.0 2.0 0.00 0.00 0.00 65 1011.7
20190116155430 42 17 1.0 3.0 0.00 0.00 0.00 65 1011.7
20190116155322 42 5 0.0 3.0 0.00 0.00 0.00 65 1011.7
20190116155233 42 5 0.0 3.0 0.00 0.00 0.00 65 1011.7
20190116155124 42 360 0.0 5.0 0.00 0.00 0.00 65 1011.6
20190116155034 42 360 0.0 5.0 0.00 0.00 0.00 65 1011.6
20190116154923 42 360 0.0 5.0 0.00 0.00 0.00 65 1011.5
20190116154837 42 360 0.0 5.0 0.00 0.00 0.00 65 1011.5
20190116154721 42 360 1.0 5.0 0.00 0.00 0.00 65 1011.5
20190116154631 42 360 2.0 5.0 0.00 0.00 0.00 65 1011.5
20190116154521 42 5 2.0 5.0 0.00 0.00 0.00 65 1011.6
20190116154432 42 360 1.0 5.0 0.00 0.00 0.00 65 1011.6
20190116154322 42 360 2.0 5.0 0.00 0.00 0.00 64 1011.5
20190116154216 42 360 1.0 5.0 0.00 0.00 0.00 64 1011.6
20190116154125 42 360 1.0 5.0 0.00 0.00 0.00 65 1011.6
20190116154015 42 360 0.0 5.0 0.00 0.00 0.00 65 1011.6
20190116153926 42 360 2.0 5.0 0.00 0.00 0.00 65 1011.6
20190116153815 42 360 1.0 4.0 0.00 0.00 0.00 64 1011.6
20190116153730 42 360 0.0 4.0 0.00 0.00 0.00 65 1011.6
20190116153621 42 360 2.0 4.0 0.00 0.00 0.00 65 1011.6
20190116153530 42 360 1.0 4.0 0.00 0.00 0.00 64 1011.6
20190116153419 42 360 0.0 2.0 0.00 0.00 0.00 65 1011.6
20190116153332 42 360 0.0 5.0 0.00 0.00 0.00 65 1011.6
20190116153216 42 360 0.0 5.0 0.00 0.00 0.00 64 1011.6
20190116153127 42 360 1.0 5.0 0.00 0.00 0.00 64 1011.6
20190116153017 42 360 0.0 5.0 0.00 0.00 0.00 64 1011.6
20190116152926 42 360 0.0 5.0 0.00 0.00 0.00 64 1011.6
20190116152817 42 10 0.0 5.0 0.00 0.00 0.00 64 1011.6
20190116152728 42 10 0.0 5.0 0.00 0.00 0.00 64 1011.6
20190116152623 42 5 1.0 5.0 0.00 0.00 0.00 64 1011.6
20190116152534 42 360 2.0 5.0 0.00 0.00 0.00 64 1011.6
20190116152425 42 360 2.0 4.0 0.00 0.00 0.00 64 1011.6
20190116152315 42 17 0.0 3.0 0.00 0.00 0.00 64 1011.5
20190116152226 42 10 0.0 3.0 0.00 0.00 0.00 64 1011.5
20190116152120 42 10 1.0 3.0 0.00 0.00 0.00 64 1011.5
20190116152030 42 360 0.0 3.0 0.00 0.00 0.00 64 1011.5
20190116151920 42 17 1.0 5.0 0.00 0.00 0.00 64 1011.5
20190116151833 42 17 2.0 5.0 0.00 0.00 0.00 64 1011.5
20190116151733 42 5 1.0 5.0 0.00 0.00 0.00 64 1011.4
20190116151642 42 360 0.0 5.0 0.00 0.00 0.00 64 1011.4
20190116151535 42 360 0.0 5.0 0.00 0.00 0.00 64 1011.4
20190116151424 42 360 1.0 5.0 0.00 0.00 0.00 64 1011.4
20190116151334 42 17 2.0 5.0 0.00 0.00 0.00 64 1011.4
20190116151225 43 14 2.0 5.0 0.00 0.00 0.00 63 1011.5
20190116151133 43 360 3.0 5.0 0.00 0.00 0.00 63 1011.5
20190116151023 43 360 4.0 5.0 0.00 0.00 0.00 63 1011.5
20190116150917 43 360 2.0 5.0 0.00 0.00 0.00 63 1011.4
20190116150826 43 360 2.0 5.0 0.00 0.00 0.00 63 1011.4
20190116150716 43 11 1.0 4.0 0.00 0.00 0.00 63 1011.4
20190116150627 43 360 1.0 4.0 0.00 0.00 0.00 63 1011.4
20190116150516 43 360 1.0 3.0 0.00 0.00 0.00 63 1011.4
20190116150431 43 360 1.0 3.0 0.00 0.00 0.00 63 1011.4
20190116150344 43 360 0.0 3.0 0.00 0.00 0.00 63 1011.4
20190116150223 43 360 1.0 3.0 0.00 0.00 0.00 63 1011.4
20190116150022 43 360 2.0 3.0 0.00 0.00 0.00 64 1011.4
20190116145917 43 360 0.0 3.0 0.00 0.00 0.00 64 1011.4
20190116145827 43 360 0.0 3.0 0.00 0.00 0.00 64 1011.4
20190116145718 43 360 0.0 3.0 0.00 0.00 0.00 64 1011.4
20190116145629 43 360 0.0 6.0 0.00 0.00 0.00 64 1011.4
20190116145519 43 360 1.0 6.0 0.00 0.00 0.00 64 1011.4
20190116145429 43 360 1.0 6.0 0.00 0.00 0.00 64 1011.4
20190116145323 43 360 1.0 6.0 0.00 0.00 0.00 64 1011.3
20190116145234 43 360 1.0 7.0 0.00 0.00 0.00 64 1011.3
20190116145124 43 360 1.0 7.0 0.00 0.00 0.00 64 1011.3
20190116145034 43 360 2.0 7.0 0.00 0.00 0.00 64 1011.3
20190116144923 43 360 2.0 7.0 0.00 0.00 0.00 64 1011.3
20190116144839 43 360 2.0 7.0 0.00 0.00 0.00 64 1011.3
20190116144718 43 360 1.0 7.0 0.00 0.00 0.00 64 1011.2
20190116144629 43 360 3.0 7.0 0.00 0.00 0.00 64 1011.2
20190116144519 43 360 3.0 11.0 0.00 0.00 0.00 64 1011.3
20190116144430 43 360 2.0 11.0 0.00 0.00 0.00 64 1011.3
20190116144325 43 360 0.0 11.0 0.00 0.00 0.00 64 1011.2
20190116144234 43 360 1.0 11.0 0.00 0.00 0.00 64 1011.2
20190116144123 43 360 2.0 11.0 0.00 0.00 0.00 64 1011.2
20190116144032 43 360 3.0 11.0 0.00 0.00 0.00 64 1011.2
20190116143923 43 17 2.0 11.0 0.00 0.00 0.00 64 1011.2
20190116143817 43 360 3.0 11.0 0.00 0.00 0.00 64 1011.2
20190116143726 43 360 5.0 11.0 0.00 0.00 0.00 64 1011.2
20190116143617 43 360 4.0 10.0 0.00 0.00 0.00 64 1011.2
20190116143527 43 360 2.0 6.0 0.00 0.00 0.00 64 1011.1
20190116143417 43 12 1.0 6.0 0.00 0.00 0.00 64 1011.1
20190116143333 43 360 2.0 6.0 0.00 0.00 0.00 64 1011.1
20190116143232 43 360 3.0 6.0 0.00 0.00 0.00 64 1011.2
20190116143121 43 13 0.0 5.0 0.00 0.00 0.00 64 1011.2
20190116143032 43 15 1.0 9.0 0.00 0.00 0.00 64 1011.2
20190116142922 43 360 1.0 9.0 0.00 0.00 0.00 64 1011.2
20190116142830 43 360 0.0 9.0 0.00 0.00 0.00 64 1011.2
20190116142724 43 360 0.0 9.0 0.00 0.00 0.00 64 1011.1
20190116142615 43 360 1.0 9.0 0.00 0.00 0.00 64 1011.2
20190116142526 43 360 2.0 9.0 0.00 0.00 0.00 64 1011.2
20190116142415 43 360 1.0 9.0 0.00 0.00 0.00 64 1011.1
20190116142326 43 360 1.0 9.0 0.00 0.00 0.00 64 1011.1
20190116142221 43 360 3.0 9.0 0.00 0.00 0.00 64 1011.2
20190116142130 43 360 1.0 5.0 0.00 0.00 0.00 64 1011.2
20190116142040 43 12 2.0 5.0 0.00 0.00 0.00 64 1011.1
20190116142010 43 360 2.0 4.0 0.00 0.00 0.00 64 1011.1
20190116141845 43 360 1.0 4.0 0.00 0.00 0.00 64 1011.2
20190116141723 43 360 0.0 4.0 0.00 0.00 0.00 64 1011.1
20190116141618 43 360 0.0 11.0 0.00 0.00 0.00 64 1011.0
20190116141528 43 360 1.0 11.0 0.00 0.00 0.00 64 1011.1
20190116141418 43 360 1.0 11.0 0.00 0.00 0.00 64 1011.1
20190116141328 43 360 2.0 11.0 0.00 0.00 0.00 64 1011.1
20190116141217 43 360 2.0 11.0 0.00 0.00 0.00 64 1011.1
20190116141128 43 360 1.0 11.0 0.00 0.00 0.00 64 1011.1
20190116141022 43 360 0.0 11.0 0.00 0.00 0.00 64 1011.0
20190116140932 43 360 0.0 11.0 0.00 0.00 0.00 64 1011.0
20190116140821 43 360 3.0 11.0 0.00 0.00 0.00 64 1011.0
20190116140731 43 360 6.0 11.0 0.00 0.00 0.00 64 1011.0
20190116140620 43 360 4.0 10.0 0.00 0.00 0.00 64 1011.0
20190116140534 43 360 5.0 10.0 0.00 0.00 0.00 64 1011.0
20190116140425 43 11 5.0 9.0 0.00 0.00 0.00 64 1010.9
20190116140338 43 360 4.0 8.0 0.00 0.00 0.00 64 1010.9
20190116140217 43 360 2.0 8.0 0.00 0.00 0.00 64 1010.9
20190116140126 43 17 1.0 8.0 0.00 0.00 0.00 64 1011.1
20190116140019 43 360 4.0 8.0 0.00 0.00 0.00 64 1011.1
20190116135928 43 360 2.0 7.0 0.00 0.00 0.00 64 1011.0
20190116135836 43 360 3.0 7.0 0.00 0.00 0.00 64 1011.0
20190116135727 43 5 3.0 8.0 0.00 0.00 0.00 64 1011.0
20190116135617 43 360 1.0 8.0 0.00 0.00 0.00 64 1010.9
20190116135527 43 360 1.0 9.0 0.00 0.00 0.00 64 1011.1
20190116135420 43 360 3.0 14.0 0.00 0.00 0.00 63 1010.9
20190116135330 43 360 4.0 14.0 0.00 0.00 0.00 63 1010.9
20190116135219 43 15 0.0 14.0 0.00 0.00 0.00 64 1011.1
20190116135130 43 360 1.0 14.0 0.00 0.00 0.00 63 1011.1
20190116135020 43 360 1.0 14.0 0.00 0.00 0.00 63 1011.0
20190116134934 43 13 3.0 14.0 0.00 0.00 0.00 63 1011.0
20190116134828 43 15 2.0 14.0 0.00 0.00 0.00 63 1011.0
20190116134727 44 360 3.0 14.0 0.00 0.00 0.00 63 1011.0
20190116134617 44 360 8.0 14.0 0.00 0.00 0.00 63 1011.0
20190116134527 44 360 2.0 6.0 0.00 0.00 0.00 63 1011.0
20190116134420 44 11 2.0 6.0 0.00 0.00 0.00 62 1010.9
20190116134329 44 360 1.0 5.0 0.00 0.00 0.00 62 1010.9
20190116134220 44 5 2.0 5.0 0.00 0.00 0.00 62 1011.0
20190116134130 44 5 0.0 4.0 0.00 0.00 0.00 62 1011.0
20190116134021 44 360 0.0 5.0 0.00 0.00 0.00 62 1011.0
20190116133929 44 360 0.0 5.0 0.00 0.00 0.00 62 1011.0
20190116133824 44 360 1.0 5.0 0.00 0.00 0.00 62 1010.9
20190116133715 44 17 0.0 5.0 0.00 0.00 0.00 62 1010.9
20190116133625 44 360 1.0 5.0 0.00 0.00 0.00 62 1010.9
20190116133532 44 360 2.0 5.0 0.00 0.00 0.00 61 1010.9
20190116133422 44 360 1.0 5.0 0.00 0.00 0.00 61 1010.8
20190116133338 44 360 1.0 5.0 0.00 0.00 0.00 61 1010.8
20190116133217 44 5 3.0 5.0 0.00 0.00 0.00 61 1010.9
20190116133126 44 360 2.0 5.0 0.00 0.00 0.00 61 1010.9
20190116133015 44 360 1.0 3.0 0.00 0.00 0.00 61 1010.9
20190116132925 44 5 2.0 3.0 0.00 0.00 0.00 62 1010.8
20190116132820 44 13 0.0 3.0 0.00 0.00 0.00 62 1010.8
20190116132729 44 360 0.0 4.0 0.00 0.00 0.00 62 1010.8
20190116132620 44 360 1.0 4.0 0.00 0.00 0.00 61 1010.8
20190116132530 44 360 1.0 4.0 0.00 0.00 0.00 61 1010.8
20190116132419 44 360 1.0 4.0 0.00 0.00 0.00 61 1010.8
20190116132329 44 360 1.0 4.0 0.00 0.00 0.00 61 1010.8
20190116132223 44 360 2.0 7.0 0.00 0.00 0.00 60 1010.8
20190116132132 44 360 2.0 7.0 0.00 0.00 0.00 60 1010.8
20190116132023 44 360 2.0 7.0 0.00 0.00 0.00 60 1010.8
20190116131933 44 360 3.0 11.0 0.00 0.00 0.00 60 1010.8
20190116131846 44 360 3.0 11.0 0.00 0.00 0.00 60 1010.8
20190116131723 44 5 2.0 11.0 0.00 0.00 0.00 60 1010.7
20190116131633 44 15 2.0 11.0 0.00 0.00 0.00 60 1010.7
20190116131540 44 9 2.0 11.0 0.00 0.00 0.00 60 1010.8
20190116131409 44 360 4.0 11.0 0.00 0.00 0.00 60 1010.8
20190116131239 44 360 1.0 11.0 0.00 0.00 0.00 60 1010.7
20190116131109 44 360 8.0 11.0 0.00 0.00 0.00 60 1010.7
20190116131012 44 360 6.0 11.0 0.00 0.00 0.00 60 1010.7
20190116130852 44 360 8.0 11.0 0.00 0.00 0.00 60 1010.7
20190116130723 44 360 10.0 11.0 0.00 0.00 0.00 60 1010.6
20190116130552 44 360 5.0 11.0 0.00 0.00 0.00 60 1010.6
20190116130429 44 360 4.0 11.0 0.00 0.00 0.00 59 1010.6
20190116130300 44 360 7.0 12.0 0.00 0.00 0.00 59 1010.6
20190116130130 44 5 3.0 12.0 0.00 0.00 0.00 59 1010.5
20190116130019 44 360 2.0 12.0 0.00 0.00 0.00 59 1010.6
20190116125925 44 360 3.0 12.0 0.00 0.00 0.00 59 1010.6
20190116125753 44 360 9.0 12.0 0.00 0.00 0.00 59 1010.6
20190116125624 44 360 9.0 12.0 0.00 0.00 0.00 59 1010.6
20190116125451 44 360 10.0 12.0 0.00 0.00 0.00 59 1010.7
20190116125318 44 360 6.0 9.0 0.00 0.00 0.00 59 1010.6
20190116124912 44 360 4.0 9.0 0.00 0.00 0.00 59 1010.7
20190116124726 44 360 3.0 9.0 0.00 0.00 0.00 59 1010.6
20190116124552 44 360 6.0 11.0 0.00 0.00 0.00 59 1010.6
20190116124431 44 360 4.0 11.0 0.00 0.00 0.00 58 1010.7
20190116124303 44 360 4.0 11.0 0.00 0.00 0.00 58 1010.6
20190116124131 44 360 5.0 11.0 0.00 0.00 0.00 59 1010.9
20190116124028 44 360 5.0 11.0 0.00 0.00 0.00 58 1010.7
20190116123856 44 360 6.0 11.0 0.00 0.00 0.00 58 1010.7
20190116123657 44 360 3.0 11.0 0.00 0.00 0.00 59 1010.9
20190116123534 44 360 1.0 11.0 0.00 0.00 0.00 59 1010.8
20190116123424 44 360 2.0 11.0 0.00 0.00 0.00 59 1010.7
20190116123336 44 360 1.0 11.0 0.00 0.00 0.00 59 1010.7
20190116123234 44 360 1.0 11.0 0.00 0.00 0.00 59 1010.8
20190116123124 44 360 5.0 11.0 0.00 0.00 0.00 59 1010.7
20190116123019 44 360 3.0 11.0 0.00 0.00 0.00 59 1010.6
20190116122929 44 360 2.0 11.0 0.00 0.00 0.00 59 1010.6
20190116122818 44 360 1.0 11.0 0.00 0.00 0.00 59 1010.6
20190116122728 44 360 2.0 13.0 0.00 0.00 0.00 59 1010.7
20190116122618 44 360 2.0 13.0 0.00 0.00 0.00 58 1010.7
20190116122532 44 360 5.0 13.0 0.00 0.00 0.00 58 1010.7
20190116122422 44 360 3.0 13.0 0.00 0.00 0.00 59 1010.7
20190116122333 44 360 2.0 13.0 0.00 0.00 0.00 59 1010.7
20190116122243 44 360 2.0 13.0 0.00 0.00 0.00 59 1010.7
20190116122132 44 360 2.0 13.0 0.00 0.00 0.00 59 1010.7
20190116122022 44 17 1.0 13.0 0.00 0.00 0.00 58 1010.8
20190116121935 44 360 6.0 13.0 0.00 0.00 0.00 58 1010.8
20190116121828 44 360 4.0 12.0 0.00 0.00 0.00 58 1010.6
20190116121726 44 360 4.0 12.0 0.00 0.00 0.00 58 1010.7
20190116121639 44 360 5.0 12.0 0.00 0.00 0.00 58 1010.7
20190116121526 44 360 5.0 12.0 0.00 0.00 0.00 58 1010.7
20190116121421 44 360 3.0 12.0 0.00 0.00 0.00 58 1010.8
20190116121331 44 360 3.0 12.0 0.00 0.00 0.00 58 1010.8
20190116121221 44 9 6.0 12.0 0.00 0.00 0.00 58 1010.8
20190116121131 44 360 3.0 12.0 0.00 0.00 0.00 58 1010.8
20190116121021 44 360 5.0 12.0 0.00 0.00 0.00 58 1010.7
20190116120929 44 360 9.0 12.0 0.00 0.00 0.00 58 1010.7
20190116120819 44 360 6.0 12.0 0.00 0.00 0.00 58 1010.8
20190116120733 44 360 5.0 12.0 0.00 0.00 0.00 58 1010.8
20190116120623 44 5 8.0 12.0 0.00 0.00 0.00 58 1010.6
20190116120553 44 360 8.0 12.0 0.00 0.00 0.00 58 1010.6
20190116120413 44 360 0.0 12.0 0.00 0.00 0.00 58 1010.6
20190116120233 44 360 0.0 12.0 0.00 0.00 0.00 59 1010.6
20190116120108 44 360 4.0 12.0 0.00 0.00 0.00 58 1010.5
20190116115939 44 360 7.0 12.0 0.00 0.00 0.00 58 1010.5
20190116115811 44 360 2.0 12.0 0.00 0.00 0.00 58 1010.4
20190116115642 44 360 3.0 12.0 0.00 0.00 0.00 58 1010.5
20190116115515 43 360 10.0 12.0 0.00 0.00 0.00 58 1010.5
20190116115352 43 360 3.0 10.0 0.00 0.00 0.00 59 1010.4
20190116115231 43 360 6.0 10.0 0.00 0.00 0.00 58 1010.4
20190116115105 43 360 4.0 10.0 0.00 0.00 0.00 58 1010.4
20190116114933 43 360 9.0 10.0 0.00 0.00 0.00 58 1010.3
20190116114805 43 360 2.0 10.0 0.00 0.00 0.00 58 1010.4
20190116114634 43 360 3.0 10.0 0.00 0.00 0.00 58 1010.4
20190116114502 43 360 2.0 10.0 0.00 0.00 0.00 58 1010.4
20190116114329 43 360 1.0 10.0 0.00 0.00 0.00 58 1010.5
20190116114213 43 360 3.0 10.0 0.00 0.00 0.00 58 1010.3
20190116114040 43 360 6.0 10.0 0.00 0.00 0.00 58 1010.2
20190116113900 43 360 5.0 9.0 0.00 0.00 0.00 58 1010.4
20190116113731 43 360 2.0 8.0 0.00 0.00 0.00 58 1010.2
20190116113607 43 17 4.0 8.0 0.00 0.00 0.00 58 1010.3
20190116113435 43 360 3.0 8.0 0.00 0.00 0.00 57 1010.3
20190116113304 43 360 6.0 8.0 0.00 0.00 0.00 57 1010.3
20190116113038 43 360 1.0 12.0 0.00 0.00 0.00 57 1010.3
20190116112850 43 12 0.0 12.0 0.00 0.00 0.00 57 1010.4
20190116112720 43 360 0.0 12.0 0.00 0.00 0.00 57 1010.3
20190116112623 43 360 0.0 13.0 0.00 0.00 0.00 57 1010.3
20190116112534 43 360 1.0 13.0 0.00 0.00 0.00 57 1010.3
20190116112425 43 360 1.0 13.0 0.00 0.00 0.00 57 1010.3
20190116112319 43 360 6.0 13.0 0.00 0.00 0.00 57 1010.4
20190116112230 43 360 2.0 13.0 0.00 0.00 0.00 57 1010.4
20190116112119 43 360 8.0 20.0 0.00 0.00 0.00 56 1010.3
20190116112030 43 360 5.0 20.0 0.00 0.00 0.00 56 1010.3
20190116111919 43 360 5.0 20.0 0.00 0.00 0.00 57 1010.4
20190116111835 43 360 5.0 20.0 0.00 0.00 0.00 57 1010.4
20190116111734 43 360 2.0 20.0 0.00 0.00 0.00 57 1010.4
20190116111625 43 360 1.0 20.0 0.00 0.00 0.00 57 1010.3
20190116111536 43 360 3.0 20.0 0.00 0.00 0.00 57 1010.3
20190116111425 43 360 5.0 20.0 0.00 0.00 0.00 56 1010.3
20190116111334 43 360 10.0 20.0 0.00 0.00 0.00 57 1010.3
20190116111229 43 360 3.0 16.0 0.00 0.00 0.00 56 1010.4
20190116111119 43 360 3.0 16.0 0.00 0.00 0.00 57 1010.2
20190116111030 43 360 5.0 16.0 0.00 0.00 0.00 56 1010.2
20190116110920 43 360 10.0 16.0 0.00 0.00 0.00 56 1010.2
20190116110831 43 360 8.0 15.0 0.00 0.00 0.00 56 1010.2
20190116110724 43 360 6.0 15.0 0.00 0.00 0.00 57 1010.2
20190116110635 43 360 5.0 15.0 0.00 0.00 0.00 57 1010.2
20190116110525 43 360 1.0 15.0 0.00 0.00 0.00 57 1010.3
20190116110435 43 360 1.0 15.0 0.00 0.00 0.00 57 1010.3
20190116110327 43 360 4.0 16.0 0.00 0.00 0.00 57 1010.4
20190116110227 43 360 7.0 20.0 0.00 0.00 0.00 57 1010.3
20190116110121 43 360 5.0 20.0 0.00 0.00 0.00 57 1010.3
20190116110032 43 360 5.0 20.0 0.00 0.00 0.00 57 1010.3
20190116105923 43 360 6.0 20.0 0.00 0.00 0.00 57 1010.2
20190116105833 43 360 4.0 20.0 0.00 0.00 0.00 57 1010.2
20190116105724 43 360 5.0 20.0 0.00 0.00 0.00 57 1010.4
20190116105635 43 360 5.0 20.0 0.00 0.00 0.00 57 1010.4
20190116105529 43 360 5.0 20.0 0.00 0.00 0.00 57 1010.3
20190116105326 43 360 10.0 20.0 0.00 0.00 0.00 57 1010.3
20190116105216 43 360 2.0 16.0 0.00 0.00 0.00 57 1010.3
20190116105126 43 360 1.0 16.0 0.00 0.00 0.00 57 1010.3
20190116105020 43 360 2.0 16.0 0.00 0.00 0.00 57 1010.5
20190116104929 43 17 1.0 16.0 0.00 0.00 0.00 57 1010.5
20190116104843 43 17 7.0 16.0 0.00 0.00 0.00 57 1010.4
20190116104722 43 360 8.0 16.0 0.00 0.00 0.00 57 1010.4
20190116104632 43 360 5.0 16.0 0.00 0.00 0.00 57 1010.4
20190116104527 43 360 6.0 16.0 0.00 0.00 0.00 57 1010.5
20190116104420 43 360 9.0 16.0 0.00 0.00 0.00 57 1010.3
20190116104326 43 360 4.0 12.0 0.00 0.00 0.00 57 1010.3
20190116104216 43 360 7.0 17.0 0.00 0.00 0.00 58 1010.4
20190116104127 43 360 2.0 17.0 0.00 0.00 0.00 58 1010.4
20190116104020 43 14 1.0 17.0 0.00 0.00 0.00 58 1010.3
20190116103930 43 360 2.0 17.0 0.00 0.00 0.00 58 1010.3
20190116103820 43 360 4.0 17.0 0.00 0.00 0.00 58 1010.1
20190116103731 43 360 1.0 17.0 0.00 0.00 0.00 58 1010.1
20190116103621 43 360 1.0 17.0 0.00 0.00 0.00 58 1010.2
20190116103530 43 360 4.0 17.0 0.00 0.00 0.00 58 1010.2
20190116103424 42 360 7.0 17.0 0.00 0.00 0.00 58 1010.4
20190116103337 42 360 7.0 17.0 0.00 0.00 0.00 58 1010.4
20190116103234 42 360 6.0 15.0 0.00 0.00 0.00 58 1010.5
20190116103124 42 360 8.0 15.0 0.00 0.00 0.00 58 1010.5
20190116103034 42 360 7.0 15.0 0.00 0.00 0.00 59 1010.5
20190116102928 42 360 4.0 8.0 0.00 0.00 0.00 58 1010.4
20190116102819 42 360 3.0 6.0 0.00 0.00 0.00 58 1010.3
20190116102649 42 360 5.0 6.0 0.00 0.00 0.00 58 1010.4
20190116102518 42 360 3.0 6.0 0.00 0.00 0.00 58 1010.5
20190116102350 42 360 0.0 6.0 0.00 0.00 0.00 58 1010.3
20190116102227 42 360 0.0 6.0 0.00 0.00 0.00 59 1010.4
20190116101828 42 360 6.0 6.0 0.00 0.00 0.00 59 1010.4
20190116101650 42 360 1.0 6.0 0.00 0.00 0.00 58 1010.5
20190116101522 42 360 2.0 11.0 0.00 0.00 0.00 58 1010.5
20190116101349 42 360 5.0 11.0 0.00 0.00 0.00 58 1010.5
20190116101215 42 360 2.0 11.0 0.00 0.00 0.00 58 1010.5
20190116101022 42 360 2.0 11.0 0.00 0.00 0.00 58 1010.6
20190116100936 42 12 2.0 11.0 0.00 0.00 0.00 58 1010.6
20190116100817 42 360 2.0 11.0 0.00 0.00 0.00 58 1010.5
20190116100643 41 360 7.0 11.0 0.00 0.00 0.00 59 1010.5
20190116100516 41 360 3.0 10.0 0.00 0.00 0.00 59 1010.6
20190116100447 41 360 2.0 10.0 0.00 0.00 0.00 59 1010.6
20190116100344 41 360 1.0 10.0 0.00 0.00 0.00 59 1010.6
20190116100222 41 360 1.0 10.0 0.00 0.00 0.00 58 1010.7
20190116100131 41 360 2.0 10.0 0.00 0.00 0.00 58 1010.7
20190116100018 41 360 1.0 10.0 0.00 0.00 0.00 58 1010.7
20190116095929 41 360 0.0 9.0 0.00 0.00 0.00 58 1010.7
20190116095820 41 360 0.0 11.0 0.00 0.00 0.00 58 1010.7
20190116095734 41 360 0.0 14.0 0.00 0.00 0.00 58 1010.7
20190116095623 41 360 2.0 14.0 0.00 0.00 0.00 58 1010.8
20190116095531 41 360 2.0 14.0 0.00 0.00 0.00 58 1010.8
20190116095421 41 360 1.0 14.0 0.00 0.00 0.00 58 1010.9
20190116095330 41 360 4.0 14.0 0.00 0.00 0.00 58 1010.9
20190116095217 41 360 4.0 14.0 0.00 0.00 0.00 58 1010.9
20190116095131 41 5 4.0 14.0 0.00 0.00 0.00 58 1010.9
20190116095021 41 360 5.0 14.0 0.00 0.00 0.00 58 1010.9
20190116094932 41 360 8.0 14.0 0.00 0.00 0.00 58 1010.9
20190116094844 41 360 5.0 14.0 0.00 0.00 0.00 59 1011.0
20190116094724 41 360 4.0 15.0 0.00 0.00 0.00 58 1011.0
20190116094619 41 360 2.0 15.0 0.00 0.00 0.00 58 1010.9
20190116094419 41 360 0.0 15.0 0.00 0.00 0.00 58 1011.0
20190116094330 41 360 1.0 15.0 0.00 0.00 0.00 58 1011.0
20190116094221 41 360 2.0 15.0 0.00 0.00 0.00 58 1011.1
20190116094129 41 360 3.0 15.0 0.00 0.00 0.00 58 1011.1
20190116094023 41 360 3.0 15.0 0.00 0.00 0.00 58 1011.2
20190116093933 41 360 7.0 15.0 0.00 0.00 0.00 58 1011.2
20190116093823 41 360 4.0 13.0 0.00 0.00 0.00 58 1011.1
20190116093731 41 360 4.0 12.0 0.00 0.00 0.00 58 1011.1
20190116093621 41 360 8.0 15.0 0.00 0.00 0.00 58 1011.2
20190116093535 41 360 3.0 15.0 0.00 0.00 0.00 58 1011.2
20190116093424 41 360 1.0 15.0 0.00 0.00 0.00 58 1011.2
20190116093338 41 360 3.0 15.0 0.00 0.00 0.00 58 1011.2
20190116093217 41 360 5.0 15.0 0.00 0.00 0.00 58 1011.2
20190116093127 41 360 2.0 15.0 0.00 0.00 0.00 58 1011.2
20190116093022 41 360 2.0 15.0 0.00 0.00 0.00 58 1011.1
20190116092933 41 360 6.0 15.0 0.00 0.00 0.00 58 1011.1
20190116092823 41 360 6.0 15.0 0.00 0.00 0.00 58 1011.2
20190116092733 41 360 4.0 8.0 0.00 0.00 0.00 58 1011.2
20190116092623 41 360 2.0 10.0 0.00 0.00 0.00 58 1011.2
20190116092516 41 360 0.0 12.0 0.00 0.00 0.00 58 1011.1
20190116092427 41 360 0.0 14.0 0.00 0.00 0.00 58 1011.1
20190116092318 41 360 2.0 15.0 0.00 0.00 0.00 58 1011.3
20190116092228 41 360 2.0 15.0 0.00 0.00 0.00 58 1011.3
20190116092119 41 360 1.0 15.0 0.00 0.00 0.00 58 1011.2
20190116092030 41 360 0.0 15.0 0.00 0.00 0.00 58 1011.2
20190116091924 41 360 3.0 15.0 0.00 0.00 0.00 58 1011.2
20190116091839 41 360 8.0 15.0 0.00 0.00 0.00 58 1011.2
20190116091717 41 360 8.0 15.0 0.00 0.00 0.00 58 1011.2
20190116091626 41 360 6.0 15.0 0.00 0.00 0.00 58 1011.1
20190116091516 41 360 7.0 15.0 0.00 0.00 0.00 58 1011.1
20190116091429 41 360 5.0 12.0 0.00 0.00 0.00 58 1011.1
20190116091320 41 360 2.0 11.0 0.00 0.00 0.00 58 1011.2
20190116091230 41 360 1.0 11.0 0.00 0.00 0.00 58 1011.2
20190116091119 41 360 1.0 11.0 0.00 0.00 0.00 58 1011.1
20190116091027 41 360 2.0 11.0 0.00 0.00 0.00 58 1011.1
20190116090920 41 360 3.0 17.0 0.00 0.00 0.00 58 1011.1
20190116090830 41 360 3.0 17.0 0.00 0.00 0.00 58 1011.1
20190116090720 41 360 0.0 17.0 0.00 0.00 0.00 58 1011.0
20190116090630 41 360 2.0 17.0 0.00 0.00 0.00 58 1011.0
20190116090520 41 360 7.0 17.0 0.00 0.00 0.00 58 1011.0
20190116090451 41 360 3.0 17.0 0.00 0.00 0.00 58 1011.0
20190116090344 41 360 4.0 17.0 0.00 0.00 0.00 58 1011.0
20190116090226 41 360 2.0 17.0 0.00 0.00 0.00 58 1011.1
20190116090135 41 360 7.0 17.0 0.00 0.00 0.00 57 1011.1
20190116090025 41 360 10.0 16.0 0.00 0.00 0.00 58 1011.1
20190116085936 41 360 11.0 16.0 0.00 0.00 0.00 58 1011.1
20190116085825 41 360 1.0 14.0 0.00 0.00 0.00 58 1011.1
20190116085719 41 360 1.0 14.0 0.00 0.00 0.00 58 1011.1
20190116085519 41 360 8.0 14.0 0.00 0.00 0.00 58 1011.0
20190116085429 41 360 7.0 14.0 0.00 0.00 0.00 58 1011.0
20190116085319 41 5 1.0 11.0 0.00 0.00 0.00 58 1011.0
20190116085227 41 360 0.0 11.0 0.00 0.00 0.00 58 1011.0
20190116085120 41 360 1.0 11.0 0.00 0.00 0.00 57 1011.0
20190116085029 41 360 1.0 12.0 0.00 0.00 0.00 58 1011.0
20190116084920 41 360 2.0 12.0 0.00 0.00 0.00 58 1011.1
20190116084833 40 360 2.0 14.0 0.00 0.00 0.00 57 1011.1
20190116084731 40 17 3.0 14.0 0.00 0.00 0.00 57 1011.0
20190116084624 40 360 4.0 14.0 0.00 0.00 0.00 57 1011.0
20190116084533 40 360 3.0 14.0 0.00 0.00 0.00 58 1011.0
20190116084423 40 360 3.0 14.0 0.00 0.00 0.00 58 1011.0
20190116084334 40 360 2.0 14.0 0.00 0.00 0.00 57 1011.0
20190116084223 40 360 6.0 14.0 0.00 0.00 0.00 57 1011.0
20190116084117 40 360 4.0 14.0 0.00 0.00 0.00 57 1011.1
20190116084026 40 360 6.0 14.0 0.00 0.00 0.00 57 1011.2
20190116083917 40 360 5.0 10.0 0.00 0.00 0.00 57 1011.3
20190116083827 40 360 6.0 10.0 0.00 0.00 0.00 57 1011.3
20190116083718 40 360 5.0 13.0 0.00 0.00 0.00 57 1011.3
20190116083629 40 360 3.0 13.0 0.00 0.00 0.00 57 1011.3
20190116083522 40 360 2.0 13.0 0.00 0.00 0.00 57 1011.2
20190116083433 40 16 3.0 13.0 0.00 0.00 0.00 57 1011.2
20190116083346 40 360 5.0 14.0 0.00 0.00 0.00 57 1011.4
20190116083227 40 360 4.0 14.0 0.00 0.00 0.00 57 1011.2
20190116083116 40 360 2.0 14.0 0.00 0.00 0.00 57 1011.3
20190116083030 40 360 4.0 14.0 0.00 0.00 0.00 57 1011.3
20190116082919 40 360 7.0 14.0 0.00 0.00 0.00 57 1011.3
20190116082828 40 360 6.0 14.0 0.00 0.00 0.00 57 1011.3
20190116082716 40 360 3.0 14.0 0.00 0.00 0.00 57 1011.5
20190116082626 40 360 7.0 14.0 0.00 0.00 0.00 57 1011.3
20190116082520 40 360 6.0 14.0 0.00 0.00 0.00 57 1011.5
20190116082429 40 360 5.0 16.0 0.00 0.00 0.00 57 1011.5
20190116082320 40 360 4.0 16.0 0.00 0.00 0.00 57 1011.5
20190116082231 40 360 4.0 16.0 0.00 0.00 0.00 57 1011.5
20190116082120 40 360 6.0 16.0 0.00 0.00 0.00 57 1011.4
20190116082030 40 360 5.0 16.0 0.00 0.00 0.00 57 1011.4
20190116081923 40 360 2.0 16.0 0.00 0.00 0.00 57 1011.6
20190116081835 40 360 3.0 16.0 0.00 0.00 0.00 57 1011.6
20190116081734 40 360 3.0 16.0 0.00 0.00 0.00 57 1011.5
20190116081622 40 360 7.0 16.0 0.00 0.00 0.00 57 1011.6
20190116081532 40 360 3.0 16.0 0.00 0.00 0.00 57 1011.6
20190116081426 40 360 1.0 10.0 0.00 0.00 0.00 57 1011.5
20190116081336 40 17 1.0 10.0 0.00 0.00 0.00 57 1011.5
20190116081226 40 360 1.0 10.0 0.00 0.00 0.00 57 1011.4
20190116081117 40 360 3.0 10.0 0.00 0.00 0.00 57 1011.4
20190116081027 40 360 5.0 10.0 0.00 0.00 0.00 57 1011.4
20190116080917 40 360 4.0 10.0 0.00 0.00 0.00 57 1011.4
20190116080832 40 360 6.0 10.0 0.00 0.00 0.00 57 1011.4
20190116080723 40 360 3.0 16.0 0.00 0.00 0.00 57 1011.3
20190116080632 40 360 2.0 16.0 0.00 0.00 0.00 57 1011.3
20190116080542 40 360 1.0 16.0 0.00 0.00 0.00 57 1011.4
20190116080432 40 360 0.0 16.0 0.00 0.00 0.00 57 1011.4
20190116080345 40 360 0.0 16.0 0.00 0.00 0.00 57 1011.4
20190116080229 40 360 1.0 16.0 0.00 0.00 0.00 57 1011.4
20190116080026 40 360 4.0 16.0 0.00 0.00 0.00 57 1011.4
20190116075917 39 360 6.0 16.0 0.00 0.00 0.00 57 1011.4
20190116075827 39 360 1.0 10.0 0.00 0.00 0.00 58 1011.4
20190116075737 39 360 1.0 10.0 0.00 0.00 0.00 58 1011.3
20190116075631 39 360 1.0 10.0 0.00 0.00 0.00 58 1011.3
20190116075522 39 360 5.0 10.0 0.00 0.00 0.00 58 1011.4
20190116075433 39 360 4.0 10.0 0.00 0.00 0.00 58 1011.4
20190116075324 39 360 3.0 10.0 0.00 0.00 0.00 58 1011.5
20190116075234 39 360 2.0 10.0 0.00 0.00 0.00 58 1011.5
20190116075129 39 360 2.0 10.0 0.00 0.00 0.00 58 1011.5
20190116075019 39 360 4.0 10.0 0.00 0.00 0.00 58 1011.4
20190116074929 39 360 4.0 10.0 0.00 0.00 0.00 58 1011.4
20190116074842 39 360 5.0 9.0 0.00 0.00 0.00 58 1011.4
20190116074719 39 360 3.0 12.0 0.00 0.00 0.00 59 1011.4
20190116074630 39 360 1.0 12.0 0.00 0.00 0.00 59 1011.4
20190116074524 38 360 1.0 12.0 0.00 0.00 0.00 59 1011.3
20190116074434 38 360 2.0 12.0 0.00 0.00 0.00 59 1011.3
20190116074324 38 360 2.0 12.0 0.00 0.00 0.00 60 1011.3
20190116074234 38 360 2.0 12.0 0.00 0.00 0.00 60 1011.3
20190116074124 38 360 3.0 12.0 0.00 0.00 0.00 60 1011.2
20190116074019 38 360 3.0 12.0 0.00 0.00 0.00 60 1011.3
20190116073929 38 360 7.0 12.0 0.00 0.00 0.00 60 1011.3
20190116073819 38 360 6.0 12.0 0.00 0.00 0.00 61 1011.3
20190116073729 37 360 6.0 12.0 0.00 0.00 0.00 61 1011.3
20190116073619 37 360 4.0 10.0 0.00 0.00 0.00 62 1011.3
20190116073533 37 360 1.0 5.0 0.00 0.00 0.00 62 1011.3
20190116073422 37 360 1.0 5.0 0.00 0.00 0.00 62 1011.2
20190116073335 37 360 1.0 5.0 0.00 0.00 0.00 62 1011.2
20190116073234 37 360 1.0 5.0 0.00 0.00 0.00 62 1011.2
20190116073124 37 360 3.0 5.0 0.00 0.00 0.00 62 1011.2
20190116073017 37 360 1.0 3.0 0.00 0.00 0.00 62 1011.2
20190116072926 37 360 2.0 5.0 0.00 0.00 0.00 62 1011.2
20190116072817 37 360 1.0 5.0 0.00 0.00 0.00 62 1011.3
20190116072726 37 360 2.0 5.0 0.00 0.00 0.00 62 1011.2
20190116072633 37 360 1.0 5.0 0.00 0.00 0.00 63 1011.2
20190116072524 36 360 0.0 5.0 0.00 0.00 0.00 63 1011.3
20190116072419 36 360 1.0 5.0 0.00 0.00 0.00 63 1011.3
20190116072330 36 360 1.0 5.0 0.00 0.00 0.00 63 1011.3
20190116072219 36 360 0.0 5.0 0.00 0.00 0.00 63 1011.2
20190116072130 36 360 1.0 5.0 0.00 0.00 0.00 63 1011.2
20190116072020 36 360 0.0 3.0 0.00 0.00 0.00 64 1011.1
20190116071933 36 360 0.0 3.0 0.00 0.00 0.00 64 1011.1
20190116071846 36 360 0.0 3.0 0.00 0.00 0.00 64 1011.3
20190116071724 36 13 0.0 3.0 0.00 0.00 0.00 64 1011.2
20190116071633 36 360 0.0 3.0 0.00 0.00 0.00 64 1011.2
20190116071524 36 360 0.0 3.0 0.00 0.00 0.00 64 1011.2
20190116071417 36 360 1.0 3.0 0.00 0.00 0.00 64 1011.2
20190116071328 36 360 1.0 5.0 0.00 0.00 0.00 64 1011.2
20190116071217 36 360 1.0 5.0 0.00 0.00 0.00 64 1011.2
20190116071126 36 360 2.0 5.0 0.00 0.00 0.00 64 1011.0
20190116071036 36 13 1.0 5.0 0.00 0.00 0.00 64 1011.0
20190116070926 36 13 1.0 5.0 0.00 0.00 0.00 64 1011.1
20190116070841 36 360 1.0 5.0 0.00 0.00 0.00 64 1011.1
20190116070732 36 5 1.0 5.0 0.00 0.00 0.00 64 1011.2
20190116070622 36 360 1.0 5.0 0.00 0.00 0.00 64 1011.2
20190116070532 36 360 2.0 5.0 0.00 0.00 0.00 64 1011.2
20190116070421 36 360 1.0 5.0 0.00 0.00 0.00 64 1011.2
20190116070333 36 360 1.0 5.0 0.00 0.00 0.00 64 1011.2
20190116070231 36 9 1.0 5.0 0.00 0.00 0.00 64 1011.1
20190116070125 36 10 3.0 5.0 0.00 0.00 0.00 64 1011.1
20190116070036 36 13 3.0 5.0 0.00 0.00 0.00 64 1011.1
20190116065926 36 5 2.0 3.0 0.00 0.00 0.00 65 1011.1
20190116065817 36 360 1.0 3.0 0.00 0.00 0.00 65 1011.1
20190116065728 36 360 1.0 3.0 0.00 0.00 0.00 65 1011.0
20190116065622 36 360 2.0 3.0 0.00 0.00 0.00 65 1011.1
20190116065532 36 360 2.0 3.0 0.00 0.00 0.00 65 1011.1
20190116065421 36 5 2.0 3.0 0.00 0.00 0.00 65 1011.0
20190116065332 35 360 1.0 2.0 0.00 0.00 0.00 65 1011.0
20190116065223 35 360 1.0 2.0 0.00 0.00 0.00 65 1010.9
20190116065117 35 360 1.0 2.0 0.00 0.00 0.00 66 1011.0
20190116065027 35 360 1.0 2.0 0.00 0.00 0.00 66 1010.9
20190116064917 35 360 2.0 2.0 0.00 0.00 0.00 66 1011.0
20190116064832 35 5 1.0 2.0 0.00 0.00 0.00 66 1011.0
20190116064729 35 360 1.0 2.0 0.00 0.00 0.00 67 1010.9
20190116064619 35 360 0.0 3.0 0.00 0.00 0.00 67 1011.0
20190116064533 35 360 0.0 3.0 0.00 0.00 0.00 67 1011.0
20190116064423 35 360 1.0 3.0 0.00 0.00 0.00 67 1011.0
20190116064334 35 10 1.0 3.0 0.00 0.00 0.00 67 1011.0
20190116064224 35 360 1.0 3.0 0.00 0.00 0.00 67 1011.0
20190116064133 35 360 1.0 3.0 0.00 0.00 0.00 67 1011.0
20190116064027 35 360 1.0 3.0 0.00 0.00 0.00 67 1010.9
20190116063826 35 360 2.0 3.0 0.00 0.00 0.00 67 1010.9
20190116063735 35 17 2.0 3.0 0.00 0.00 0.00 67 1010.9
20190116063632 35 360 1.0 3.0 0.00 0.00 0.00 67 1011.1
20190116063530 35 360 1.0 3.0 0.00 0.00 0.00 67 1011.1
20190116063425 35 17 2.0 3.0 0.00 0.00 0.00 67 1011.1
20190116063337 35 360 1.0 3.0 0.00 0.00 0.00 67 1011.1
20190116063217 34 360 1.0 4.0 0.00 0.00 0.00 67 1011.1
20190116063127 34 5 0.0 5.0 0.00 0.00 0.00 68 1011.0
20190116063018 34 5 1.0 5.0 0.00 0.00 0.00 68 1011.2
20190116062931 34 360 1.0 5.0 0.00 0.00 0.00 68 1011.2
20190116062820 34 5 1.0 5.0 0.00 0.00 0.00 68 1011.1
20190116062731 34 360 2.0 5.0 0.00 0.00 0.00 68 1011.1
20190116062620 34 5 2.0 5.0 0.00 0.00 0.00 68 1011.1
20190116062531 34 360 2.0 5.0 0.00 0.00 0.00 69 1011.1
20190116062425 34 11 2.0 5.0 0.00 0.00 0.00 69 1011.1
20190116062334 34 360 3.0 5.0 0.00 0.00 0.00 69 1011.1
20190116062224 33 360 2.0 5.0 0.00 0.00 0.00 69 1011.0
20190116062135 33 360 2.0 5.0 0.00 0.00 0.00 69 1011.0
20190116062024 33 360 2.0 5.0 0.00 0.00 0.00 69 1011.0
20190116061918 33 360 1.0 5.0 0.00 0.00 0.00 70 1011.1
20190116061830 33 17 2.0 5.0 0.00 0.00 0.00 70 1011.1
20190116061729 33 360 2.0 5.0 0.00 0.00 0.00 70 1011.1
20190116061619 33 5 3.0 5.0 0.00 0.00 0.00 70 1011.2
20190116061529 33 360 2.0 3.0 0.00 0.00 0.00 70 1011.2
20190116061420 33 360 1.0 3.0 0.00 0.00 0.00 70 1011.2
20190116061335 33 360 1.0 3.0 0.00 0.00 0.00 70 1011.2
20190116061244 33 360 1.0 3.0 0.00 0.00 0.00 70 1011.3
20190116061134 33 360 1.0 3.0 0.00 0.00 0.00 70 1011.3
20190116061024 33 360 1.0 3.0 0.00 0.00 0.00 70 1011.2
20190116060934 33 5 2.0 3.0 0.00 0.00 0.00 70 1011.2
20190116060824 33 10 2.0 3.0 0.00 0.00 0.00 70 1011.3
20190116060717 33 360 1.0 3.0 0.00 0.00 0.00 70 1011.4
20190116060626 33 360 1.0 3.0 0.00 0.00 0.00 70 1011.3
20190116060535 33 360 1.0 3.0 0.00 0.00 0.00 70 1011.3
20190116060426 33 9 2.0 3.0 0.00 0.00 0.00 70 1011.2
20190116060339 33 17 1.0 3.0 0.00 0.00 0.00 70 1011.2
20190116060219 33 360 1.0 3.0 0.00 0.00 0.00 70 1011.4
20190116060129 33 360 2.0 3.0 0.00 0.00 0.00 70 1011.4
20190116060021 33 360 1.0 3.0 0.00 0.00 0.00 70 1011.5
20190116055931 33 360 1.0 3.0 0.00 0.00 0.00 70 1011.5
20190116055822 33 360 1.0 3.0 0.00 0.00 0.00 70 1011.5
20190116055730 33 360 1.0 3.0 0.00 0.00 0.00 70 1011.5
20190116055621 33 360 2.0 6.0 0.00 0.00 0.00 70 1011.4
20190116055536 33 360 1.0 6.0 0.00 0.00 0.00 70 1011.4
20190116055426 33 360 1.0 6.0 0.00 0.00 0.00 70 1011.4
20190116055317 33 360 2.0 7.0 0.00 0.00 0.00 70 1011.4
20190116055226 33 360 1.0 7.0 0.00 0.00 0.00 70 1011.4
20190116055117 33 360 2.0 7.0 0.00 0.00 0.00 70 1011.3
20190116055031 33 360 1.0 7.0 0.00 0.00 0.00 70 1011.3
20190116054920 33 360 2.0 7.0 0.00 0.00 0.00 70 1011.4
20190116054833 33 360 3.0 7.0 0.00 0.00 0.00 70 1011.4
20190116054731 33 11 3.0 7.0 0.00 0.00 0.00 70 1011.3
20190116054622 33 360 3.0 7.0 0.00 0.00 0.00 70 1011.4
20190116054517 33 360 4.0 7.0 0.00 0.00 0.00 70 1011.4
20190116054427 33 360 5.0 7.0 0.00 0.00 0.00 70 1011.4
20190116054318 33 360 2.0 6.0 0.00 0.00 0.00 70 1011.3
20190116054229 33 360 2.0 6.0 0.00 0.00 0.00 70 1011.3
20190116054120 33 360 2.0 6.0 0.00 0.00 0.00 70 1011.3
20190116054035 33 360 1.0 6.0 0.00 0.00 0.00 70 1011.3
20190116053926 33 360 1.0 6.0 0.00 0.00 0.00 70 1011.4
20190116053817 33 360 1.0 6.0 0.00 0.00 0.00 70 1011.4
20190116053728 33 360 1.0 6.0 0.00 0.00 0.00 70 1011.4
20190116053619 33 360 2.0 6.0 0.00 0.00 0.00 70 1011.4
20190116053530 33 360 4.0 6.0 0.00 0.00 0.00 70 1011.4
20190116053424 33 360 1.0 3.0 0.00 0.00 0.00 69 1011.4
20190116053337 33 360 1.0 5.0 0.00 0.00 0.00 69 1011.4
20190116053236 33 360 1.0 6.0 0.00 0.00 0.00 69 1011.5
20190116053126 33 17 1.0 6.0 0.00 0.00 0.00 69 1011.4
20190116053017 33 5 0.0 6.0 0.00 0.00 0.00 69 1011.4
20190116052932 33 5 1.0 6.0 0.00 0.00 0.00 69 1011.4
20190116052822 33 360 1.0 6.0 0.00 0.00 0.00 69 1011.4
20190116052732 33 5 1.0 6.0 0.00 0.00 0.00 69 1011.4
20190116052622 33 5 2.0 9.0 0.00 0.00 0.00 69 1011.4
20190116052531 33 360 2.0 9.0 0.00 0.00 0.00 69 1011.4
20190116052426 33 360 4.0 9.0 0.00 0.00 0.00 69 1011.4
20190116052317 33 360 1.0 9.0 0.00 0.00 0.00 69 1011.4
20190116052228 33 360 1.0 9.0 0.00 0.00 0.00 69 1011.4
20190116052119 33 360 1.0 9.0 0.00 0.00 0.00 70 1011.4
20190116052029 33 360 2.0 9.0 0.00 0.00 0.00 70 1011.4
20190116051924 33 360 3.0 9.0 0.00 0.00 0.00 70 1011.4
20190116051836 33 360 4.0 9.0 0.00 0.00 0.00 69 1011.4
20190116051737 33 360 2.0 7.0 0.00 0.00 0.00 69 1011.4
20190116051625 33 360 1.0 8.0 0.00 0.00 0.00 69 1011.3
20190116051535 33 360 1.0 8.0 0.00 0.00 0.00 69 1011.3
20190116051425 33 360 1.0 8.0 0.00 0.00 0.00 69 1011.6
20190116051320 33 360 3.0 8.0 0.00 0.00 0.00 69 1011.4
20190116051230 33 360 4.0 8.0 0.00 0.00 0.00 69 1011.4
20190116051120 33 360 1.0 8.0 0.00 0.00 0.00 69 1011.5
20190116051029 33 360 1.0 8.0 0.00 0.00 0.00 70 1011.5
20190116050920 33 360 1.0 8.0 0.00 0.00 0.00 70 1011.4
20190116050830 33 360 4.0 8.0 0.00 0.00 0.00 69 1011.4
20190116050724 33 360 1.0 6.0 0.00 0.00 0.00 69 1011.5
20190116050635 33 360 1.0 6.0 0.00 0.00 0.00 69 1011.5
20190116050525 33 360 1.0 6.0 0.00 0.00 0.00 69 1011.5
20190116050435 33 360 1.0 5.0 0.00 0.00 0.00 69 1011.5
20190116050327 33 360 0.0 5.0 0.00 0.00 0.00 69 1011.5
20190116050226 33 360 2.0 5.0 0.00 0.00 0.00 69 1011.4
20190116050120 33 360 1.0 5.0 0.00 0.00 0.00 69 1011.5
20190116050028 33 360 2.0 5.0 0.00 0.00 0.00 69 1011.5
20190116045917 33 360 2.0 5.0 0.00 0.00 0.00 69 1011.5
20190116045827 33 360 1.0 5.0 0.00 0.00 0.00 69 1011.4
20190116045718 33 360 3.0 5.0 0.00 0.00 0.00 68 1011.5
20190116045632 33 5 2.0 5.0 0.00 0.00 0.00 68 1011.5
20190116045524 33 360 1.0 5.0 0.00 0.00 0.00 69 1011.7
20190116045433 34 360 1.0 8.0 0.00 0.00 0.00 68 1011.7
20190116045324 34 360 1.0 8.0 0.00 0.00 0.00 68 1011.6
20190116045233 34 360 1.0 8.0 0.00 0.00 0.00 68 1011.6
20190116045127 34 360 2.0 8.0 0.00 0.00 0.00 68 1011.7
20190116045018 34 17 2.0 8.0 0.00 0.00 0.00 68 1011.7
20190116044928 34 360 1.0 8.0 0.00 0.00 0.00 68 1011.7
20190116044842 34 360 1.0 8.0 0.00 0.00 0.00 68 1011.7
20190116044720 34 360 2.0 8.0 0.00 0.00 0.00 68 1011.7
20190116044633 34 360 3.0 8.0 0.00 0.00 0.00 68 1011.7
20190116044524 34 360 2.0 6.0 0.00 0.00 0.00 68 1011.7
20190116044435 34 360 2.0 6.0 0.00 0.00 0.00 68 1011.7
20190116044326 34 360 2.0 6.0 0.00 0.00 0.00 68 1011.7
20190116044217 34 360 1.0 5.0 0.00 0.00 0.00 68 1011.7
20190116044130 34 360 2.0 5.0 0.00 0.00 0.00 68 1011.7
20190116044020 34 360 2.0 4.0 0.00 0.00 0.00 68 1011.8
20190116043930 34 360 2.0 8.0 0.00 0.00 0.00 68 1011.8
20190116043820 34 360 1.0 8.0 0.00 0.00 0.00 68 1011.7
20190116043731 34 360 2.0 8.0 0.00 0.00 0.00 68 1011.7
20190116043625 34 360 2.0 8.0 0.00 0.00 0.00 68 1011.7
20190116043535 34 360 1.0 10.0 0.00 0.00 0.00 68 1011.7
20190116043425 34 360 1.0 10.0 0.00 0.00 0.00 68 1011.8
20190116043338 34 360 1.0 10.0 0.00 0.00 0.00 68 1011.8
20190116043216 34 360 2.0 10.0 0.00 0.00 0.00 68 1011.6
20190116043126 34 360 3.0 10.0 0.00 0.00 0.00 68 1011.8
20190116043021 34 360 1.0 10.0 0.00 0.00 0.00 68 1011.7
20190116042932 34 360 2.0 10.0 0.00 0.00 0.00 68 1011.7
20190116042821 34 360 4.0 10.0 0.00 0.00 0.00 68 1011.8
20190116042730 34 360 6.0 10.0 0.00 0.00 0.00 68 1011.8
20190116042621 34 360 3.0 17.0 0.00 0.00 0.00 68 1011.8
20190116042536 34 360 1.0 17.0 0.00 0.00 0.00 68 1011.8
20190116042425 34 360 1.0 17.0 0.00 0.00 0.00 68 1011.8
20190116042333 34 360 1.0 17.0 0.00 0.00 0.00 68 1011.8
20190116042223 34 360 2.0 17.0 0.00 0.00 0.00 67 1011.7
20190116042133 34 360 2.0 17.0 0.00 0.00 0.00 68 1011.7
20190116042024 34 360 2.0 17.0 0.00 0.00 0.00 68 1011.6
20190116041919 34 17 4.0 17.0 0.00 0.00 0.00 68 1011.7
20190116041834 34 360 10.0 17.0 0.00 0.00 0.00 68 1011.7
20190116041732 34 360 3.0 17.0 0.00 0.00 0.00 68 1011.6
20190116041622 34 360 2.0 17.0 0.00 0.00 0.00 68 1011.8
20190116041532 34 360 2.0 17.0 0.00 0.00 0.00 68 1011.8
20190116041425 34 5 2.0 17.0 0.00 0.00 0.00 68 1011.6
20190116041335 34 360 3.0 17.0 0.00 0.00 0.00 68 1011.6
20190116041226 34 360 4.0 17.0 0.00 0.00 0.00 68 1011.7
20190116041117 34 360 3.0 17.0 0.00 0.00 0.00 68 1011.7
20190116041027 34 360 5.0 17.0 0.00 0.00 0.00 68 1011.7
20190116040922 34 360 10.0 17.0 0.00 0.00 0.00 68 1011.6
20190116040832 34 12 3.0 8.0 0.00 0.00 0.00 68 1011.6
20190116040721 34 360 3.0 7.0 0.00 0.00 0.00 68 1011.7
20190116040631 34 360 2.0 10.0 0.00 0.00 0.00 68 1011.7
20190116040522 34 360 1.0 11.0 0.00 0.00 0.00 68 1011.8
20190116040416 34 360 2.0 11.0 0.00 0.00 0.00 68 1011.7
20190116040330 34 360 2.0 11.0 0.00 0.00 0.00 68 1011.7
20190116040230 34 5 1.0 11.0 0.00 0.00 0.00 68 1011.7
20190116040120 34 360 2.0 11.0 0.00 0.00 0.00 68 1011.7
20190116040030 34 360 4.0 11.0 0.00 0.00 0.00 68 1011.7
20190116035920 34 360 2.0 11.0 0.00 0.00 0.00 69 1011.7
20190116035834 34 360 4.0 11.0 0.00 0.00 0.00 69 1011.7
20190116035724 34 360 6.0 11.0 0.00 0.00 0.00 69 1011.7
20190116035634 34 360 4.0 11.0 0.00 0.00 0.00 69 1011.7
20190116035524 34 360 1.0 11.0 0.00 0.00 0.00 69 1011.5
20190116035433 34 360 2.0 11.0 0.00 0.00 0.00 69 1011.5
20190116035328 34 360 7.0 11.0 0.00 0.00 0.00 69 1011.7
20190116035218 34 360 6.0 11.0 0.00 0.00 0.00 70 1011.6
20190116035129 34 360 8.0 11.0 0.00 0.00 0.00 70 1011.6
20190116035019 33 360 4.0 9.0 0.00 0.00 0.00 70 1011.6
20190116034930 33 360 6.0 9.0 0.00 0.00 0.00 70 1011.6
20190116034828 33 360 4.0 9.0 0.00 0.00 0.00 70 1011.6
20190116034728 33 5 2.0 7.0 0.00 0.00 0.00 70 1011.6
20190116034619 33 10 3.0 7.0 0.00 0.00 0.00 70 1011.6
20190116034529 33 360 1.0 7.0 0.00 0.00 0.00 70 1011.6
20190116034420 33 360 1.0 9.0 0.00 0.00 0.00 70 1011.6
20190116034331 33 360 2.0 13.0 0.00 0.00 0.00 71 1011.6
20190116034225 33 360 3.0 13.0 0.00 0.00 0.00 71 1011.7
20190116034135 33 360 2.0 13.0 0.00 0.00 0.00 71 1011.7
20190116034024 33 360 4.0 13.0 0.00 0.00 0.00 71 1011.7
20190116033935 33 360 5.0 13.0 0.00 0.00 0.00 71 1011.7
20190116033824 33 12 3.0 13.0 0.00 0.00 0.00 71 1011.6
20190116033718 33 360 3.0 13.0 0.00 0.00 0.00 72 1011.6
20190116033628 32 17 4.0 13.0 0.00 0.00 0.00 72 1011.6
20190116033518 32 360 8.0 13.0 0.00 0.00 0.00 72 1011.6
20190116033428 32 360 8.0 13.0 0.00 0.00 0.00 72 1011.6
20190116033342 32 360 2.0 6.0 0.00 0.00 0.00 72 1011.6
20190116033223 32 360 1.0 6.0 0.00 0.00 0.00 72 1011.6
20190116033134 32 360 1.0 7.0 0.00 0.00 0.00 72 1011.6
20190116033023 32 360 1.0 7.0 0.00 0.00 0.00 72 1011.6
20190116032933 32 360 2.0 7.0 0.00 0.00 0.00 72 1011.6
20190116032823 32 5 1.0 7.0 0.00 0.00 0.00 73 1011.6
20190116032718 32 360 1.0 7.0 0.00 0.00 0.00 73 1011.6
20190116032629 32 360 3.0 7.0 0.00 0.00 0.00 73 1011.6
20190116032520 32 360 4.0 7.0 0.00 0.00 0.00 73 1011.6
20190116032431 31 360 2.0 7.0 0.00 0.00 0.00 73 1011.6
20190116032228 31 360 1.0 6.0 0.00 0.00 0.00 73 1011.5
20190116032122 31 360 2.0 6.0 0.00 0.00 0.00 73 1011.6
20190116032032 31 360 3.0 6.0 0.00 0.00 0.00 73 1011.6
20190116031941 31 360 3.0 6.0 0.00 0.00 0.00 73 1011.5
20190116031832 31 360 3.0 6.0 0.00 0.00 0.00 73 1011.6
20190116031732 31 360 3.0 6.0 0.00 0.00 0.00 73 1011.6
20190116031621 31 360 1.0 5.0 0.00 0.00 0.00 73 1011.7
20190116031530 31 360 0.0 5.0 0.00 0.00 0.00 73 1011.7
20190116031425 31 360 0.0 6.0 0.00 0.00 0.00 73 1011.5
20190116031335 31 360 0.0 7.0 0.00 0.00 0.00 73 1011.5
20190116031226 31 360 3.0 7.0 0.00 0.00 0.00 73 1011.7
20190116031117 31 360 2.0 7.0 0.00 0.00 0.00 73 1011.7
20190116031026 31 360 2.0 7.0 0.00 0.00 0.00 73 1011.6
20190116030921 31 360 4.0 7.0 0.00 0.00 0.00 73 1011.6
20190116030831 31 11 3.0 7.0 0.00 0.00 0.00 73 1011.6
20190116030721 31 360 2.0 7.0 0.00 0.00 0.00 73 1011.6
20190116030631 31 360 3.0 7.0 0.00 0.00 0.00 73 1011.6
20190116030520 31 360 5.0 7.0 0.00 0.00 0.00 73 1011.7
20190116030429 31 360 2.0 7.0 0.00 0.00 0.00 73 1011.7
20190116030327 31 360 3.0 7.0 0.00 0.00 0.00 73 1011.6
20190116030226 31 360 2.0 7.0 0.00 0.00 0.00 73 1011.7
20190116030137 31 360 2.0 7.0 0.00 0.00 0.00 73 1011.7
20190116030025 31 360 1.0 7.0 0.00 0.00 0.00 73 1011.7
20190116025936 31 360 4.0 7.0 0.00 0.00 0.00 73 1011.7
20190116025830 31 360 5.0 7.0 0.00 0.00 0.00 73 1011.7
20190116025718 30 10 6.0 7.0 0.00 0.00 0.00 73 1011.7
20190116025627 30 360 5.0 7.0 0.00 0.00 0.00 74 1011.7
20190116025517 30 360 3.0 7.0 0.00 0.00 0.00 74 1011.6
20190116025427 30 11 2.0 7.0 0.00 0.00 0.00 74 1011.7
20190116025321 30 360 4.0 7.0 0.00 0.00 0.00 74 1011.7
20190116025230 30 360 3.0 5.0 0.00 0.00 0.00 74 1011.7
20190116025119 30 360 2.0 5.0 0.00 0.00 0.00 74 1011.7
20190116025029 30 360 3.0 5.0 0.00 0.00 0.00 74 1011.7
20190116024919 30 360 3.0 5.0 0.00 0.00 0.00 74 1011.7
20190116024835 30 360 2.0 6.0 0.00 0.00 0.00 74 1011.7
20190116024734 30 360 3.0 6.0 0.00 0.00 0.00 73 1011.7
20190116024625 30 360 2.0 6.0 0.00 0.00 0.00 73 1011.7
20190116024534 30 360 1.0 6.0 0.00 0.00 0.00 73 1011.7
20190116024425 30 360 1.0 6.0 0.00 0.00 0.00 73 1011.7
20190116024316 30 360 1.0 6.0 0.00 0.00 0.00 73 1011.7
20190116024230 30 360 1.0 6.0 0.00 0.00 0.00 74 1011.7
20190116024120 30 360 2.0 6.0 0.00 0.00 0.00 74 1011.8
20190116024031 30 360 1.0 6.0 0.00 0.00 0.00 74 1011.8
20190116023920 30 360 4.0 6.0 0.00 0.00 0.00 74 1011.8
20190116023829 30 360 2.0 5.0 0.00 0.00 0.00 73 1011.8
20190116023721 30 17 2.0 5.0 0.00 0.00 0.00 73 1011.8
20190116023632 30 360 2.0 5.0 0.00 0.00 0.00 73 1011.8
20190116023522 30 360 1.0 5.0 0.00 0.00 0.00 73 1011.9
20190116023436 30 360 2.0 6.0 0.00 0.00 0.00 73 1011.9
20190116023346 30 5 4.0 6.0 0.00 0.00 0.00 73 1011.9
20190116023224 30 5 3.0 6.0 0.00 0.00 0.00 73 1011.8
20190116023119 30 5 4.0 9.0 0.00 0.00 0.00 73 1011.9
20190116023028 30 9 3.0 9.0 0.00 0.00 0.00 73 1012.0
20190116022918 30 360 3.0 9.0 0.00 0.00 0.00 73 1011.9
20190116022829 30 9 1.0 9.0 0.00 0.00 0.00 74 1011.9
20190116022719 30 360 1.0 9.0 0.00 0.00 0.00 74 1012.0
20190116022632 30 360 3.0 9.0 0.00 0.00 0.00 74 1012.0
20190116022521 30 360 2.0 9.0 0.00 0.00 0.00 74 1011.9
20190116022431 30 360 2.0 9.0 0.00 0.00 0.00 74 1011.9
20190116022322 30 360 5.0 9.0 0.00 0.00 0.00 74 1012.0
20190116022232 30 360 3.0 9.0 0.00 0.00 0.00 74 1012.0
20190116022122 30 10 2.0 5.0 0.00 0.00 0.00 74 1012.0
20190116022017 30 360 1.0 3.0 0.00 0.00 0.00 74 1012.0
20190116021926 30 360 2.0 3.0 0.00 0.00 0.00 74 1012.0
20190116021838 30 11 2.0 3.0 0.00 0.00 0.00 75 1012.0
20190116021717 29 360 1.0 2.0 0.00 0.00 0.00 75 1012.0
20190116021627 29 360 1.0 2.0 0.00 0.00 0.00 75 1012.0
20190116021521 29 17 1.0 2.0 0.00 0.00 0.00 75 1012.0
20190116021431 29 360 1.0 2.0 0.00 0.00 0.00 75 1012.0
20190116021321 29 17 1.0 2.0 0.00 0.00 0.00 75 1012.0
20190116021232 29 360 0.0 2.0 0.00 0.00 0.00 75 1012.0
20190116021123 29 360 0.0 2.0 0.00 0.00 0.00 75 1012.0
20190116021033 29 360 1.0 2.0 0.00 0.00 0.00 75 1012.0
20190116020928 29 360 0.0 1.0 0.00 0.00 0.00 76 1012.0
20190116020819 29 360 0.0 1.0 0.00 0.00 0.00 76 1012.0
20190116020729 29 360 0.0 1.0 0.00 0.00 0.00 76 1012.0
20190116020619 29 360 0.0 1.0 0.00 0.00 0.00 76 1012.1
20190116020528 29 360 1.0 1.0 0.00 0.00 0.00 76 1012.1
20190116020423 29 360 0.0 1.0 0.00 0.00 0.00 77 1012.1
20190116020336 28 13 0.0 1.0 0.00 0.00 0.00 77 1012.1
20190116020234 28 13 0.0 1.0 0.00 0.00 0.00 77 1012.1
20190116020124 28 10 0.0 1.0 0.00 0.00 0.00 77 1012.1
20190116020035 28 10 0.0 1.0 0.00 0.00 0.00 76 1012.1
20190116015928 28 10 0.0 1.0 0.00 0.00 0.00 76 1012.1
20190116015819 28 11 0.0 0.0 0.00 0.00 0.00 76 1012.1
20190116015730 28 10 0.0 0.0 0.00 0.00 0.00 76 1012.1
20190116015620 28 10 0.0 0.0 0.00 0.00 0.00 76 1012.2
20190116015530 28 10 0.0 0.0 0.00 0.00 0.00 76 1012.2
20190116015423 28 10 0.0 0.0 0.00 0.00 0.00 76 1012.2
20190116015333 28 10 0.0 0.0 0.00 0.00 0.00 76 1012.2
20190116015223 28 10 0.0 0.0 0.00 0.00 0.00 76 1012.2
20190116015134 28 10 0.0 0.0 0.00 0.00 0.00 76 1012.2
20190116015022 28 10 0.0 0.0 0.00 0.00 0.00 76 1012.2
20190116014931 28 10 0.0 0.0 0.00 0.00 0.00 76 1012.2
20190116014829 28 10 0.0 0.0 0.00 0.00 0.00 76 1012.1
20190116014725 28 11 0.0 0.0 0.00 0.00 0.00 76 1012.1
20190116014635 28 10 0.0 0.0 0.00 0.00 0.00 76 1012.1
20190116014525 28 10 0.0 0.0 0.00 0.00 0.00 76 1012.1
20190116014434 28 10 0.0 0.0 0.00 0.00 0.00 76 1012.1
20190116014328 28 10 0.0 0.0 0.00 0.00 0.00 75 1012.2
20190116014218 28 10 0.0 0.0 0.00 0.00 0.00 75 1012.2
20190116014128 28 10 0.0 0.0 0.00 0.00 0.00 75 1012.2
20190116014019 28 10 0.0 0.0 0.00 0.00 0.00 75 1012.2
20190116013930 28 10 0.0 0.0 0.00 0.00 0.00 75 1012.2
20190116013825 28 11 0.0 0.0 0.00 0.00 0.00 75 1012.2
20190116013736 28 11 0.0 0.0 0.00 0.00 0.00 75 1012.2
20190116013625 28 11 0.0 0.0 0.00 0.00 0.00 75 1012.2
20190116013535 28 10 0.0 0.0 0.00 0.00 0.00 75 1012.2
20190116013426 28 10 0.0 0.0 0.00 0.00 0.00 75 1012.2
20190116013338 28 11 0.0 0.0 0.00 0.00 0.00 75 1012.2
20190116013220 28 10 0.0 0.0 0.00 0.00 0.00 75 1012.2
20190116013130 28 10 0.0 0.0 0.00 0.00 0.00 75 1012.2
20190116013021 28 10 0.0 0.0 0.00 0.00 0.00 75 1012.2
20190116012932 28 10 0.0 0.0 0.00 0.00 0.00 75 1012.2
20190116012821 28 10 0.0 0.0 0.00 0.00 0.00 75 1012.2
20190116012734 28 10 0.0 0.0 0.00 0.00 0.00 75 1012.2
20190116012625 28 11 0.0 0.0 0.00 0.00 0.00 75 1012.3
20190116012536 28 10 0.0 0.0 0.00 0.00 0.00 75 1012.3
20190116012425 28 10 0.0 0.0 0.00 0.00 0.00 75 1012.3
20190116012335 28 11 0.0 0.0 0.00 0.00 0.00 75 1012.3
20190116012303 28 11 0.0 0.0 0.00 0.00 0.00 75 1012.3
20190116012125 28 10 0.0 0.0 0.00 0.00 0.00 75 1012.3
20190116012018 28 10 0.0 0.0 0.00 0.00 0.00 75 1012.3
20190116011929 28 10 0.0 0.0 0.00 0.00 0.00 75 1012.3
20190116011841 28 10 0.0 0.0 0.00 0.00 0.00 75 1012.3
20190116011720 28 11 0.0 0.0 0.00 0.00 0.00 75 1012.5
20190116011631 28 11 0.0 0.0 0.00 0.00 0.00 75 1012.5
20190116011521 28 10 0.0 0.0 0.00 0.00 0.00 74 1012.4
20190116011429 28 10 0.0 0.0 0.00 0.00 0.00 74 1012.4
20190116011320 28 10 0.0 0.0 0.00 0.00 0.00 74 1012.4
20190116011231 28 10 0.0 0.0 0.00 0.00 0.00 74 1012.4
20190116011120 28 10 0.0 0.0 0.00 0.00 0.00 74 1012.3
20190116011031 28 10 0.0 0.0 0.00 0.00 0.00 74 1012.3
20190116010924 28 10 0.0 0.0 0.00 0.00 0.00 74 1012.4
20190116010835 28 11 0.0 1.0 0.00 0.00 0.00 74 1012.4
20190116010722 28 10 0.0 1.0 0.00 0.00 0.00 74 1012.4
20190116010633 28 10 0.0 1.0 0.00 0.00 0.00 74 1012.4
20190116010523 28 11 0.0 1.0 0.00 0.00 0.00 73 1012.4
20190116010418 28 11 0.0 1.0 0.00 0.00 0.00 73 1012.5
20190116010331 28 11 0.0 2.0 0.00 0.00 0.00 73 1012.5
20190116010230 28 11 0.0 2.0 0.00 0.00 0.00 73 1012.5
20190116010120 28 10 0.0 2.0 0.00 0.00 0.00 73 1012.5
20190116010031 28 10 0.0 2.0 0.00 0.00 0.00 73 1012.5
20190116005920 28 10 1.0 2.0 0.00 0.00 0.00 74 1012.5
20190116005835 28 10 0.0 2.0 0.00 0.00 0.00 74 1012.5
20190116005725 28 11 1.0 2.0 0.00 0.00 0.00 74 1012.6
20190116005616 28 11 1.0 2.0 0.00 0.00 0.00 74 1012.5
20190116005527 28 11 1.0 2.0 0.00 0.00 0.00 73 1012.5
20190116005416 28 360 0.0 2.0 0.00 0.00 0.00 73 1012.5
20190116005331 28 360 1.0 2.0 0.00 0.00 0.00 73 1012.5
20190116005221 28 360 0.0 2.0 0.00 0.00 0.00 73 1012.5
20190116005130 28 360 0.0 2.0 0.00 0.00 0.00 73 1012.5
20190116005020 28 360 1.0 2.0 0.00 0.00 0.00 73 1012.5
20190116004931 28 17 1.0 2.0 0.00 0.00 0.00 73 1012.5
20190116004827 28 360 1.0 2.0 0.00 0.00 0.00 73 1012.4
20190116004726 28 360 1.0 3.0 0.00 0.00 0.00 73 1012.5
20190116004634 28 360 0.0 3.0 0.00 0.00 0.00 73 1012.5
20190116004525 28 360 1.0 3.0 0.00 0.00 0.00 73 1012.6
20190116004435 28 360 1.0 3.0 0.00 0.00 0.00 73 1012.6
20190116004325 28 360 1.0 6.0 0.00 0.00 0.00 73 1012.6
20190116004220 28 360 1.0 6.0 0.00 0.00 0.00 73 1012.6
20190116004131 28 360 1.0 6.0 0.00 0.00 0.00 73 1012.6
20190116004022 28 360 0.0 6.0 0.00 0.00 0.00 73 1012.5
20190116003933 28 360 1.0 6.0 0.00 0.00 0.00 73 1012.5
20190116003822 28 360 2.0 6.0 0.00 0.00 0.00 73 1012.5
20190116003755 28 360 1.0 6.0 0.00 0.00 0.00 73 1012.5
20190116003624 28 360 2.0 6.0 0.00 0.00 0.00 74 1012.5
20190116003534 28 360 3.0 6.0 0.00 0.00 0.00 74 1012.5
20190116003421 28 360 0.0 5.0 0.00 0.00 0.00 74 1012.4
20190116003335 28 360 1.0 5.0 0.00 0.00 0.00 74 1012.4
20190116003233 27 360 1.0 5.0 0.00 0.00 0.00 74 1012.3
20190116003127 27 360 1.0 5.0 0.00 0.00 0.00 74 1012.3
20190116003018 27 360 3.0 5.0 0.00 0.00 0.00 74 1012.3
20190116002929 27 360 2.0 4.0 0.00 0.00 0.00 74 1012.3
20190116002840 27 360 2.0 3.0 0.00 0.00 0.00 74 1012.4
20190116002730 27 360 2.0 3.0 0.00 0.00 0.00 74 1012.4
20190116002620 27 360 2.0 3.0 0.00 0.00 0.00 74 1012.4
20190116002534 27 360 2.0 3.0 0.00 0.00 0.00 74 1012.4
20190116002425 27 360 1.0 3.0 0.00 0.00 0.00 74 1012.5
20190116002316 27 360 2.0 3.0 0.00 0.00 0.00 74 1012.4
20190116002227 27 360 2.0 3.0 0.00 0.00 0.00 74 1012.4
20190116002117 27 5 1.0 3.0 0.00 0.00 0.00 74 1012.4
20190116002032 27 360 1.0 3.0 0.00 0.00 0.00 74 1012.4
20190116001920 27 360 2.0 3.0 0.00 0.00 0.00 74 1012.4
20190116001833 27 360 1.0 5.0 0.00 0.00 0.00 74 1012.4
20190116001732 27 360 1.0 6.0 0.00 0.00 0.00 74 1012.4
20190116001622 27 360 1.0 6.0 0.00 0.00 0.00 74 1012.5
20190116001532 27 360 1.0 8.0 0.00 0.00 0.00 74 1012.5
20190116001426 27 360 1.0 8.0 0.00 0.00 0.00 74 1012.5
20190116001317 27 360 1.0 8.0 0.00 0.00 0.00 74 1012.5
20190116001226 27 360 1.0 8.0 0.00 0.00 0.00 74 1012.5
20190116001116 27 360 1.0 8.0 0.00 0.00 0.00 74 1012.4
20190116001026 27 360 3.0 8.0 0.00 0.00 0.00 74 1012.4
20190116000920 27 360 4.0 8.0 0.00 0.00 0.00 74 1012.4
20190116000831 27 360 5.0 8.0 0.00 0.00 0.00 74 1012.4
20190116000720 27 12 6.0 8.0 0.00 0.00 0.00 74 1012.3
20190116000630 27 360 7.0 8.0 0.00 0.00 0.00 73 1012.3
20190116000520 27 11 4.0 7.0 0.00 0.00 0.00 73 1012.2
20190116000435 27 360 4.0 7.0 0.00 0.00 0.00 73 1012.2
20190116000328 27 360 4.0 7.0 0.00 0.00 0.00 73 1012.3
20190116000228 27 360 2.0 7.0 0.00 0.00 0.00 73 1012.2
20190116000118 27 11 4.0 7.0 0.00 0.00 0.00 73 1012.3
20190116000028 27 360 1.0 3.0 0.00 0.00 0.00 73 1012.3
20190115235922 27 11 0.0 3.0 0.00 0.00 0.00 73 1012.3
20190115235832 27 360 1.0 5.0 0.00 0.00 0.00 73 1012.3
20190115235722 27 360 1.0 5.0 0.00 0.00 0.00 73 1012.3
20190115235632 27 17 1.0 5.0 0.00 0.00 0.00 73 1012.3
20190115235522 27 360 1.0 5.0 0.00 0.00 0.00 73 1012.3
20190115235432 27 360 1.0 5.0 0.00 0.00 0.00 73 1012.3
20190115235326 27 9 0.0 5.0 0.00 0.00 0.00 73 1012.3
20190115235127 27 10 2.0 6.0 0.00 0.00 0.00 73 1012.3
20190115235020 27 10 2.0 7.0 0.00 0.00 0.00 73 1012.2
20190115234926 27 360 0.0 7.0 0.00 0.00 0.00 73 1012.3
20190115234842 27 360 1.0 7.0 0.00 0.00 0.00 73 1012.3
20190115234720 27 16 2.0 7.0 0.00 0.00 0.00 73 1012.2
20190115234631 27 10 1.0 7.0 0.00 0.00 0.00 73 1012.2
20190115234520 27 360 1.0 7.0 0.00 0.00 0.00 73 1012.2
20190115234431 27 5 3.0 7.0 0.00 0.00 0.00 73 1012.2
20190115234325 27 360 2.0 7.0 0.00 0.00 0.00 73 1012.2
20190115234235 27 5 4.0 7.0 0.00 0.00 0.00 73 1012.2
20190115234125 27 17 2.0 6.0 0.00 0.00 0.00 73 1012.2
20190115234035 27 360 3.0 8.0 0.00 0.00 0.00 73 1012.2
20190115233927 27 12 2.0 10.0 0.00 0.00 0.00 73 1012.2
20190115233816 27 360 1.0 10.0 0.00 0.00 0.00 74 1012.2
20190115233731 27 360 2.0 10.0 0.00 0.00 0.00 74 1012.2
20190115233622 27 360 1.0 10.0 0.00 0.00 0.00 74 1012.3
20190115233532 27 360 1.0 10.0 0.00 0.00 0.00 73 1012.3
20190115233442 27 360 2.0 10.0 0.00 0.00 0.00 73 1012.2
20190115233335 27 360 0.0 10.0 0.00 0.00 0.00 74 1012.2
20190115233218 27 360 3.0 10.0 0.00 0.00 0.00 74 1012.3
20190115233128 27 360 6.0 10.0 0.00 0.00 0.00 74 1012.3
20190115233019 27 360 2.0 6.0 0.00 0.00 0.00 73 1012.2
20190115232929 27 360 1.0 5.0 0.00 0.00 0.00 73 1012.2
20190115232819 27 9 0.0 5.0 0.00 0.00 0.00 73 1012.2
20190115232729 27 360 0.0 5.0 0.00 0.00 0.00 73 1012.2
20190115232619 27 360 2.0 5.0 0.00 0.00 0.00 73 1012.3
20190115232534 27 12 1.0 5.0 0.00 0.00 0.00 73 1012.3
20190115232428 27 10 0.0 3.0 0.00 0.00 0.00 73 1012.3
20190115232316 27 10 0.0 3.0 0.00 0.00 0.00 73 1012.2
20190115232226 27 16 0.0 3.0 0.00 0.00 0.00 73 1012.3
20190115232116 27 360 0.0 5.0 0.00 0.00 0.00 73 1012.3
20190115232031 27 360 0.0 5.0 0.00 0.00 0.00 73 1012.3
20190115231921 27 360 1.0 6.0 0.00 0.00 0.00 73 1012.3
20190115231837 27 360 1.0 6.0 0.00 0.00 0.00 73 1012.3
20190115231735 27 360 1.0 7.0 0.00 0.00 0.00 73 1012.4
20190115231626 27 360 1.0 7.0 0.00 0.00 0.00 73 1012.3
20190115231520 27 360 0.0 7.0 0.00 0.00 0.00 73 1012.2
20190115231430 27 360 0.0 7.0 0.00 0.00 0.00 73 1012.2
20190115231321 27 360 2.0 7.0 0.00 0.00 0.00 72 1012.3
20190115231231 27 9 2.0 7.0 0.00 0.00 0.00 72 1012.3
20190115231120 27 360 2.0 7.0 0.00 0.00 0.00 72 1012.2
20190115231034 27 360 1.0 7.0 0.00 0.00 0.00 72 1012.2
20190115230924 27 360 2.0 7.0 0.00 0.00 0.00 72 1012.2
20190115230835 27 360 1.0 6.0 0.00 0.00 0.00 72 1012.2
20190115230726 27 360 0.0 6.0 0.00 0.00 0.00 72 1012.0
20190115230635 27 360 1.0 7.0 0.00 0.00 0.00 72 1012.0
20190115230527 27 360 1.0 10.0 0.00 0.00 0.00 72 1011.9
20190115230418 27 360 2.0 10.0 0.00 0.00 0.00 72 1012.0
20190115230331 27 360 1.0 10.0 0.00 0.00 0.00 72 1012.0
20190115230230 28 360 0.0 10.0 0.00 0.00 0.00 72 1012.0
20190115230121 28 360 2.0 10.0 0.00 0.00 0.00 72 1011.9
20190115230030 28 360 5.0 10.0 0.00 0.00 0.00 72 1011.9
20190115225927 28 360 4.0 10.0 0.00 0.00 0.00 72 1012.0
20190115225833 28 360 5.0 10.0 0.00 0.00 0.00 72 1012.0
20190115225722 28 360 5.0 10.0 0.00 0.00 0.00 72 1012.0
20190115225631 28 13 2.0 10.0 0.00 0.00 0.00 72 1012.0
20190115225522 28 360 5.0 10.0 0.00 0.00 0.00 72 1011.9
20190115225417 28 360 2.0 10.0 0.00 0.00 0.00 72 1012.0
20190115225327 28 360 2.0 10.0 0.00 0.00 0.00 72 1012.0
20190115225218 28 360 4.0 10.0 0.00 0.00 0.00 72 1012.0
20190115225128 28 360 7.0 10.0 0.00 0.00 0.00 72 1012.0
20190115225018 28 360 1.0 9.0 0.00 0.00 0.00 72 1012.0
20190115224932 28 360 0.0 9.0 0.00 0.00 0.00 72 1012.0
20190115224846 28 360 1.0 9.0 0.00 0.00 0.00 72 1012.0
20190115224724 28 360 4.0 9.0 0.00 0.00 0.00 71 1012.1
20190115224634 28 360 4.0 9.0 0.00 0.00 0.00 71 1012.1
20190115224524 28 360 1.0 8.0 0.00 0.00 0.00 71 1012.0
20190115224427 28 360 2.0 8.0 0.00 0.00 0.00 71 1012.1
20190115224329 28 9 1.0 8.0 0.00 0.00 0.00 71 1012.1
20190115224220 28 360 0.0 8.0 0.00 0.00 0.00 71 1012.0
20190115224130 28 360 0.0 8.0 0.00 0.00 0.00 71 1012.0
20190115224021 28 360 0.0 8.0 0.00 0.00 0.00 71 1012.1
20190115223932 28 360 3.0 8.0 0.00 0.00 0.00 71 1012.1
20190115223827 28 360 5.0 7.0 0.00 0.00 0.00 72 1012.2
20190115223736 28 360 3.0 7.0 0.00 0.00 0.00 72 1012.2
20190115223626 28 360 3.0 8.0 0.00 0.00 0.00 72 1012.1
20190115223517 28 360 2.0 8.0 0.00 0.00 0.00 72 1012.1
20190115223447 28 360 2.0 12.0 0.00 0.00 0.00 72 1012.1
20190115223340 28 360 1.0 12.0 0.00 0.00 0.00 72 1012.1
20190115223224 28 360 2.0 12.0 0.00 0.00 0.00 72 1012.0
20190115223134 28 360 1.0 12.0 0.00 0.00 0.00 72 1012.0
20190115223023 28 360 1.0 12.0 0.00 0.00 0.00 72 1012.0
20190115222934 28 360 2.0 12.0 0.00 0.00 0.00 72 1012.0
20190115222823 28 360 2.0 12.0 0.00 0.00 0.00 72 1012.1
20190115222734 28 360 5.0 12.0 0.00 0.00 0.00 72 1012.1
20190115222629 28 360 5.0 12.0 0.00 0.00 0.00 72 1012.1
20190115222519 28 360 1.0 10.0 0.00 0.00 0.00 72 1012.1
20190115222429 27 360 2.0 10.0 0.00 0.00 0.00 72 1012.1
20190115222319 27 360 6.0 10.0 0.00 0.00 0.00 73 1012.1
20190115222229 27 360 2.0 4.0 0.00 0.00 0.00 73 1012.1
20190115222118 27 360 1.0 4.0 0.00 0.00 0.00 73 1012.1
20190115222033 27 360 2.0 4.0 0.00 0.00 0.00 73 1012.1
20190115221923 27 360 0.0 1.0 0.00 0.00 0.00 73 1012.1
20190115221836 27 360 0.0 1.0 0.00 0.00 0.00 73 1012.1
20190115221735 27 360 0.0 1.0 0.00 0.00 0.00 73 1012.1
20190115221625 27 360 1.0 2.0 0.00 0.00 0.00 73 1012.1
20190115221519 27 360 0.0 2.0 0.00 0.00 0.00 73 1012.2
20190115221428 27 360 0.0 2.0 0.00 0.00 0.00 73 1012.2
20190115221319 27 360 0.0 4.0 0.00 0.00 0.00 73 1012.1
20190115221230 27 360 1.0 4.0 0.00 0.00 0.00 73 1012.1
20190115221121 27 360 0.0 4.0 0.00 0.00 0.00 73 1012.1
20190115221035 27 360 0.0 4.0 0.00 0.00 0.00 73 1012.1
20190115220924 27 360 0.0 4.0 0.00 0.00 0.00 73 1012.1
20190115220835 27 360 1.0 4.0 0.00 0.00 0.00 73 1012.1
20190115220725 27 360 1.0 4.0 0.00 0.00 0.00 73 1012.1
20190115220635 27 360 0.0 4.0 0.00 0.00 0.00 73 1012.1
20190115220530 27 360 1.0 4.0 0.00 0.00 0.00 73 1012.1
20190115220420 27 360 0.0 4.0 0.00 0.00 0.00 72 1012.1
20190115220333 27 360 0.0 4.0 0.00 0.00 0.00 72 1012.1
20190115220229 27 17 0.0 4.0 0.00 0.00 0.00 72 1012.2
20190115220120 28 17 1.0 4.0 0.00 0.00 0.00 72 1012.1
20190115220024 28 5 0.0 4.0 0.00 0.00 0.00 72 1012.1
20190115215919 28 17 0.0 6.0 0.00 0.00 0.00 72 1012.1
20190115215830 28 360 1.0 6.0 0.00 0.00 0.00 72 1012.1
20190115215721 28 9 0.0 6.0 0.00 0.00 0.00 72 1012.1
20190115215632 28 360 1.0 6.0 0.00 0.00 0.00 72 1012.1
20190115215522 28 360 1.0 6.0 0.00 0.00 0.00 72 1012.0
20190115215436 28 360 1.0 6.0 0.00 0.00 0.00 72 1012.0
20190115215326 28 360 0.0 6.0 0.00 0.00 0.00 72 1012.0
20190115215216 28 9 0.0 6.0 0.00 0.00 0.00 72 1012.0
20190115215127 28 360 0.0 7.0 0.00 0.00 0.00 72 1012.0
20190115215017 28 13 0.0 8.0 0.00 0.00 0.00 72 1011.9
20190115214931 28 360 0.0 8.0 0.00 0.00 0.00 72 1011.9
20190115214844 28 360 0.0 8.0 0.00 0.00 0.00 72 1011.9
20190115214723 28 360 0.0 8.0 0.00 0.00 0.00 72 1011.9
20190115214632 28 360 1.0 8.0 0.00 0.00 0.00 72 1011.9
20190115214523 28 360 3.0 8.0 0.00 0.00 0.00 72 1012.0
20190115214433 28 360 3.0 8.0 0.00 0.00 0.00 72 1012.0
20190115214327 28 360 1.0 8.0 0.00 0.00 0.00 72 1011.9
20190115214218 28 360 5.0 8.0 0.00 0.00 0.00 72 1011.8
20190115214129 28 10 2.0 7.0 0.00 0.00 0.00 72 1011.8
20190115214018 28 11 0.0 11.0 0.00 0.00 0.00 72 1011.9
20190115213929 28 11 0.0 11.0 0.00 0.00 0.00 72 1011.9
20190115213824 28 17 0.0 11.0 0.00 0.00 0.00 72 1011.7
20190115213735 28 5 0.0 11.0 0.00 0.00 0.00 72 1011.7
20190115213624 28 360 1.0 11.0 0.00 0.00 0.00 72 1011.7
20190115213535 28 360 0.0 11.0 0.00 0.00 0.00 72 1011.7
20190115213424 28 360 2.0 11.0 0.00 0.00 0.00 72 1011.8
20190115213335 28 360 4.0 11.0 0.00 0.00 0.00 72 1011.8
20190115213233 28 360 6.0 11.0 0.00 0.00 0.00 72 1011.8
20190115213128 28 360 2.0 6.0 0.00 0.00 0.00 72 1011.7
20190115213018 28 360 1.0 11.0 0.00 0.00 0.00 72 1011.8
20190115212929 28 360 0.0 12.0 0.00 0.00 0.00 72 1011.8
20190115212819 28 360 1.0 12.0 0.00 0.00 0.00 72 1011.6
20190115212729 28 360 1.0 12.0 0.00 0.00 0.00 72 1011.6
20190115212623 28 9 1.0 12.0 0.00 0.00 0.00 72 1011.6
20190115212534 28 5 1.0 12.0 0.00 0.00 0.00 72 1011.6
20190115212424 28 360 1.0 12.0 0.00 0.01 0.00 72 1011.6
20190115212333 28 13 2.0 15.0 0.00 0.01 0.00 72 1011.6
20190115212224 28 360 5.0 15.0 0.00 0.01 0.00 72 1011.5
20190115212119 28 360 5.0 15.0 0.00 0.01 0.00 72 1011.5
20190115212030 28 360 0.0 15.0 0.00 0.01 0.00 72 1011.5
20190115211920 28 360 1.0 15.0 0.00 0.01 0.00 72 1011.5
20190115211833 28 360 4.0 15.0 0.00 0.01 0.00 72 1011.5
20190115211732 28 360 6.0 15.0 0.00 0.01 0.00 72 1011.5
20190115211621 28 360 1.0 15.0 0.00 0.01 0.00 72 1011.5
20190115211516 28 360 9.0 15.0 0.00 0.01 0.00 72 1011.6
20190115211427 28 360 2.0 9.0 0.00 0.01 0.00 72 1011.6
20190115211317 28 360 2.0 9.0 0.00 0.01 0.00 72 1011.4
20190115211228 28 360 0.0 9.0 0.00 0.01 0.00 72 1011.4
20190115211119 28 360 2.0 10.0 0.00 0.01 0.00 72 1011.5
20190115211033 28 360 2.0 12.0 0.00 0.01 0.00 72 1011.5
20190115210923 28 360 1.0 12.0 0.00 0.01 0.00 72 1011.4
20190115210833 28 360 1.0 12.0 0.00 0.01 0.00 72 1011.4
20190115210723 28 360 1.0 12.0 0.00 0.01 0.00 72 1011.5
20190115210633 28 360 0.0 12.0 0.00 0.01 0.00 72 1011.5
20190115210527 28 360 0.0 12.0 0.00 0.01 0.00 72 1011.4
20190115210437 28 360 0.0 12.0 0.00 0.01 0.00 72 1011.4
20190115210329 28 360 3.0 12.0 0.00 0.01 0.00 72 1011.4
20190115210228 28 360 6.0 12.0 0.00 0.01 0.00 73 1011.4
20190115210118 28 360 0.0 7.0 0.00 0.01 0.00 73 1011.4
20190115210027 27 360 0.0 7.0 0.00 0.01 0.00 72 1011.5
20190115205921 27 360 1.0 7.0 0.00 0.01 0.00 73 1011.5
20190115205832 27 360 1.0 7.0 0.00 0.01 0.00 73 1011.5
20190115205723 27 360 1.0 9.0 0.00 0.01 0.00 73 1011.5
20190115205633 27 360 2.0 9.0 0.00 0.01 0.00 73 1011.5
20190115205523 27 360 5.0 9.0 0.00 0.01 0.00 73 1011.5
20190115205417 27 360 3.0 9.0 0.00 0.01 0.00 73 1011.5
20190115205328 27 10 3.0 9.0 0.00 0.01 0.00 73 1011.5
20190115205219 27 5 0.0 9.0 0.00 0.01 0.00 73 1011.6
20190115205129 27 360 1.0 9.0 0.00 0.01 0.00 73 1011.6
20190115205019 27 360 0.0 9.0 0.00 0.01 0.00 73 1011.5
20190115204933 27 11 7.0 9.0 0.00 0.01 0.00 73 1011.5
20190115204847 27 360 4.0 9.0 0.00 0.01 0.00 73 1011.5
20190115204725 27 360 2.0 8.0 0.00 0.01 0.00 73 1011.5
20190115204635 27 360 3.0 8.0 0.00 0.01 0.00 73 1011.5
20190115204525 27 360 1.0 7.0 0.00 0.01 0.00 73 1011.6
20190115204454 27 360 2.0 7.0 0.00 0.01 0.00 73 1011.6
20190115204328 27 360 1.0 7.0 0.00 0.01 0.00 73 1011.5
20190115204218 27 360 1.0 8.0 0.00 0.01 0.00 73 1011.5
20190115204128 27 360 1.0 9.0 0.00 0.01 0.00 73 1011.5
20190115204038 27 360 3.0 9.0 0.00 0.01 0.00 73 1011.5
20190115203927 27 360 4.0 9.0 0.00 0.01 0.00 73 1011.6
20190115203818 27 360 1.0 9.0 0.00 0.01 0.00 73 1011.5
20190115203732 27 360 2.0 9.0 0.00 0.01 0.00 73 1011.5
20190115203622 27 360 2.0 9.0 0.00 0.01 0.00 73 1011.4
20190115203533 27 360 2.0 9.0 0.00 0.01 0.00 73 1011.4
20190115203424 27 360 5.0 9.0 0.00 0.01 0.00 73 1011.5
20190115203337 27 360 6.0 9.0 0.00 0.01 0.00 72 1011.5
20190115203220 27 360 2.0 8.0 0.00 0.01 0.00 72 1011.5
20190115203129 27 360 1.0 8.0 0.00 0.01 0.00 72 1011.5
20190115203019 27 9 1.0 8.0 0.00 0.01 0.00 72 1011.4
20190115202928 27 360 2.0 8.0 0.00 0.01 0.00 72 1011.4
20190115202818 27 360 2.0 8.0 0.00 0.01 0.00 72 1011.4
20190115202726 27 360 4.0 8.0 0.00 0.01 0.00 72 1011.3
20190115202620 27 360 2.0 7.0 0.00 0.01 0.00 72 1011.4
20190115202529 27 9 1.0 7.0 0.00 0.01 0.00 72 1011.4
20190115202418 27 360 0.0 8.0 0.00 0.01 0.00 72 1011.3
20190115202326 27 360 1.0 10.0 0.00 0.01 0.00 72 1011.3
20190115202131 27 5 1.0 10.0 0.00 0.01 0.00 72 1011.4
20190115202020 27 9 3.0 10.0 0.00 0.01 0.00 72 1011.3
20190115201931 27 360 3.0 10.0 0.00 0.01 0.00 72 1011.3
20190115201844 27 360 2.0 10.0 0.00 0.01 0.00 72 1011.3
20190115201724 27 13 2.0 10.0 0.00 0.01 0.00 72 1011.2
20190115201618 27 360 6.0 10.0 0.00 0.01 0.00 72 1011.3
20190115201529 27 360 7.0 10.0 0.00 0.01 0.00 72 1011.3
20190115201420 27 360 1.0 8.0 0.00 0.01 0.00 72 1011.3
20190115201330 27 360 1.0 8.0 0.00 0.01 0.00 72 1011.3
20190115201220 27 360 2.0 8.0 0.00 0.01 0.00 72 1011.3
20190115201134 27 5 3.0 8.0 0.00 0.01 0.00 72 1011.3
20190115201024 27 17 1.0 8.0 0.00 0.01 0.00 72 1011.2
20190115200934 27 16 1.0 8.0 0.00 0.01 0.00 72 1011.2
20190115200824 27 360 1.0 8.0 0.00 0.01 0.00 72 1011.2
20190115200734 27 360 2.0 8.0 0.00 0.01 0.00 72 1011.2
20190115200625 27 360 3.0 8.0 0.00 0.01 0.00 72 1011.1
20190115200518 27 360 4.0 17.0 0.00 0.01 0.00 72 1011.1
20190115200428 27 360 2.0 17.0 0.00 0.01 0.00 72 1011.1
20190115200341 27 360 3.0 17.0 0.00 0.01 0.00 72 1011.1
20190115200220 27 360 5.0 17.0 0.00 0.01 0.00 72 1011.0
20190115200026 27 360 3.0 17.0 0.00 0.01 0.00 72 1011.0
20190115195917 27 360 3.0 17.0 0.00 0.01 0.00 72 1011.0
20190115195827 27 360 2.0 17.0 0.00 0.01 0.00 72 1011.0
20190115195718 27 360 8.0 17.0 0.00 0.01 0.00 72 1011.0
20190115195629 27 360 11.0 17.0 0.00 0.01 0.00 72 1011.0
20190115195524 27 360 3.0 11.0 0.00 0.01 0.00 72 1011.0
20190115195435 27 360 0.0 11.0 0.00 0.01 0.00 72 1011.0
20190115195326 27 360 1.0 11.0 0.00 0.01 0.00 72 1010.9
20190115195217 27 15 1.0 11.0 0.00 0.01 0.00 72 1010.9
20190115195127 27 360 1.0 11.0 0.00 0.01 0.00 72 1011.0
20190115195020 27 360 3.0 11.0 0.00 0.01 0.00 72 1011.0
20190115194931 27 360 6.0 11.0 0.00 0.01 0.00 72 1011.0
20190115194844 27 360 8.0 11.0 0.00 0.01 0.00 72 1010.9
20190115194723 27 360 4.0 8.0 0.00 0.01 0.00 72 1011.1
20190115194633 27 5 1.0 8.0 0.00 0.01 0.00 72 1011.1
20190115194523 27 11 2.0 8.0 0.00 0.01 0.00 72 1011.0
20190115194436 27 360 2.0 8.0 0.00 0.01 0.00 72 1011.0
20190115194342 27 360 3.0 8.0 0.00 0.01 0.00 72 1011.1
20190115194233 27 360 3.0 8.0 0.00 0.01 0.00 72 1011.1
20190115194123 27 360 5.0 8.0 0.00 0.01 0.00 72 1011.1
20190115194033 27 360 3.0 8.0 0.00 0.01 0.00 72 1011.1
20190115193922 27 5 1.0 3.0 0.00 0.01 0.00 72 1011.0
20190115193831 27 5 1.0 3.0 0.00 0.01 0.00 72 1011.0
20190115193725 27 360 1.0 3.0 0.00 0.01 0.00 72 1011.1
20190115193635 27 360 0.0 7.0 0.00 0.01 0.00 72 1011.1
20190115193525 27 360 0.0 7.0 0.00 0.01 0.00 72 1010.9
20190115193433 27 10 1.0 7.0 0.00 0.01 0.00 72 1010.9
20190115193345 27 13 1.0 7.0 0.00 0.01 0.00 72 1010.9
20190115193229 27 360 1.0 7.0 0.00 0.01 0.00 72 1011.1
20190115193119 27 360 0.0 7.0 0.00 0.01 0.00 72 1010.9
20190115193030 27 15 0.0 7.0 0.00 0.01 0.00 72 1010.9
20190115192920 27 11 1.0 7.0 0.00 0.01 0.00 72 1010.8
20190115192829 27 13 2.0 9.0 0.00 0.01 0.00 72 1010.8
20190115192723 27 360 0.0 9.0 0.00 0.01 0.00 72 1010.7
20190115192633 27 360 0.0 9.0 0.00 0.01 0.00 72 1010.7
20190115192523 27 360 1.0 9.0 0.00 0.01 0.00 72 1010.7
20190115192434 27 360 0.0 9.0 0.00 0.01 0.00 72 1010.7
20190115192324 27 360 0.0 9.0 0.00 0.01 0.00 72 1010.6
20190115192218 27 360 0.0 9.0 0.00 0.01 0.00 72 1010.6
20190115192129 27 360 1.0 9.0 0.00 0.01 0.00 72 1010.6
20190115192018 27 360 3.0 9.0 0.00 0.01 0.00 72 1010.6
20190115191929 27 360 5.0 9.0 0.00 0.01 0.00 72 1010.6
20190115191843 27 360 2.0 6.0 0.00 0.01 0.00 72 1010.6
20190115191723 27 360 0.0 4.0 0.00 0.01 0.00 72 1010.6
20190115191621 27 360 0.0 4.0 0.00 0.01 0.00 72 1010.5
20190115191529 27 360 0.0 4.0 0.00 0.01 0.00 72 1010.5
20190115191419 27 360 0.0 4.0 0.00 0.01 0.00 72 1010.5
20190115191329 27 360 0.0 4.0 0.00 0.01 0.00 72 1010.5
20190115191219 27 360 0.0 4.0 0.00 0.01 0.00 72 1010.5
20190115191134 27 5 0.0 4.0 0.00 0.01 0.00 72 1010.5
20190115191025 27 17 1.0 4.0 0.00 0.01 0.00 72 1010.5
20190115190824 27 360 0.0 2.0 0.00 0.01 0.00 72 1010.5
20190115190628 27 360 1.0 2.0 0.00 0.01 0.00 72 1010.5
20190115190518 27 360 0.0 2.0 0.00 0.01 0.00 72 1010.5
20190115190428 27 360 0.0 2.0 0.00 0.01 0.00 72 1010.5
20190115190341 27 360 0.0 3.0 0.00 0.01 0.00 72 1010.5
20190115190219 27 360 1.0 4.0 0.00 0.01 0.00 72 1010.5
20190115190130 27 360 0.0 8.0 0.00 0.01 0.00 72 1010.5
20190115190025 27 360 0.0 8.0 0.00 0.01 0.00 72 1010.6
20190115185935 27 360 0.0 8.0 0.00 0.01 0.00 72 1010.6
20190115185825 27 9 0.0 8.0 0.00 0.01 0.00 72 1010.6
20190115185734 27 360 1.0 8.0 0.00 0.01 0.00 72 1010.6
20190115185625 27 360 1.0 8.0 0.00 0.01 0.00 72 1010.5
20190115185518 27 360 1.0 8.0 0.00 0.01 0.00 72 1010.5
20190115185428 27 360 2.0 8.0 0.00 0.01 0.00 73 1010.5
20190115185318 27 360 3.0 8.0 0.00 0.01 0.00 73 1010.6
20190115185229 27 360 3.0 8.0 0.00 0.01 0.00 73 1010.6
20190115185120 27 360 1.0 6.0 0.00 0.01 0.00 73 1010.5
20190115185035 27 360 1.0 6.0 0.00 0.01 0.00 73 1010.5
20190115184925 27 360 0.0 6.0 0.00 0.01 0.00 73 1010.4
20190115184839 27 360 1.0 6.0 0.00 0.01 0.00 73 1010.4
20190115184718 27 360 2.0 6.0 0.00 0.01 0.00 73 1010.4
20190115184627 27 360 0.0 3.0 0.00 0.01 0.00 73 1010.3
20190115184518 27 360 1.0 3.0 0.00 0.01 0.00 73 1010.4
20190115184432 27 360 0.0 3.0 0.00 0.01 0.00 73 1010.4
20190115184322 27 360 1.0 3.0 0.00 0.01 0.00 73 1010.4
20190115184231 27 360 1.0 5.0 0.00 0.01 0.00 73 1010.4
20190115184120 27 360 1.0 5.0 0.00 0.01 0.00 73 1010.3
20190115184029 27 360 1.0 5.0 0.00 0.01 0.00 73 1010.3
20190115183921 27 13 1.0 5.0 0.00 0.01 0.00 73 1010.3
20190115183834 27 11 0.0 5.0 0.00 0.01 0.00 73 1010.3
20190115183725 27 5 0.0 5.0 0.00 0.01 0.00 72 1010.3
20190115183634 27 17 0.0 5.0 0.00 0.01 0.00 72 1010.3
20190115183524 27 360 1.0 5.0 0.00 0.01 0.00 72 1010.3
20190115183434 27 360 2.0 5.0 0.00 0.01 0.00 72 1010.3
20190115183327 27 360 0.0 7.0 0.00 0.01 0.00 72 1010.2
20190115183230 27 11 0.0 7.0 0.00 0.01 0.00 72 1010.2
20190115183119 27 5 0.0 9.0 0.00 0.01 0.00 72 1010.2
20190115183029 27 360 1.0 9.0 0.00 0.01 0.00 72 1010.2
20190115182919 27 360 1.0 12.0 0.00 0.01 0.00 72 1010.2
20190115182829 27 360 0.0 12.0 0.00 0.01 0.00 72 1010.2
20190115182722 27 360 0.0 12.0 0.00 0.01 0.00 72 1010.2
20190115182632 27 360 0.0 12.0 0.00 0.01 0.00 72 1010.2
20190115182522 27 360 2.0 12.0 0.00 0.01 0.00 72 1010.1
20190115182433 27 360 3.0 12.0 0.00 0.01 0.00 72 1010.1
20190115182323 27 360 7.0 12.0 0.00 0.01 0.00 72 1010.1
20190115182217 27 360 3.0 12.0 0.00 0.01 0.00 72 1010.2
20190115182127 27 360 5.0 12.0 0.00 0.01 0.00 72 1010.1
20190115182017 27 360 4.0 13.0 0.00 0.01 0.00 72 1010.1
20190115181926 27 360 2.0 13.0 0.00 0.01 0.00 72 1010.1
20190115181842 27 360 2.0 13.0 0.00 0.01 0.00 72 1010.1
20190115181723 27 360 3.0 13.0 0.00 0.01 0.00 72 1010.0
20190115181633 27 360 2.0 13.0 0.00 0.01 0.00 72 1010.0
20190115181523 27 360 4.0 13.0 0.00 0.01 0.00 72 1009.9
20190115181433 27 360 2.0 13.0 0.00 0.01 0.00 72 1009.9
20190115181323 27 360 4.0 13.0 0.00 0.01 0.00 72 1009.9
20190115181233 27 360 7.0 13.0 0.00 0.01 0.00 72 1009.9
20190115181127 27 360 3.0 11.0 0.00 0.01 0.00 72 1009.9
20190115181017 27 360 5.0 11.0 0.00 0.01 0.00 72 1009.9
20190115180928 27 360 4.0 11.0 0.00 0.01 0.00 72 1009.9
20190115180818 27 360 5.0 11.0 0.00 0.01 0.00 72 1009.9
20190115180729 27 360 5.0 11.0 0.00 0.01 0.00 72 1009.9
20190115180624 27 360 4.0 8.0 0.00 0.01 0.00 71 1009.9
20190115180534 27 360 4.0 7.0 0.00 0.01 0.00 71 1009.9
20190115180424 27 360 2.0 7.0 0.00 0.01 0.00 71 1009.9
20190115180337 27 360 1.0 7.0 0.00 0.01 0.00 71 1009.9
20190115180235 27 360 1.0 7.0 0.00 0.01 0.00 71 1009.7
20190115180130 27 360 1.0 7.0 0.00 0.01 0.00 71 1009.7
20190115180021 27 360 1.0 7.0 0.00 0.01 0.00 71 1009.7
20190115175930 27 360 1.0 7.0 0.00 0.01 0.00 71 1009.7
20190115175820 27 360 1.0 8.0 0.00 0.01 0.00 71 1009.8
20190115175730 27 360 3.0 8.0 0.00 0.01 0.00 71 1009.8
20190115175619 27 360 0.0 8.0 0.00 0.01 0.00 71 1009.8
20190115175542 27 360 0.0 8.0 0.00 0.01 0.00 71 1009.8
20190115175423 27 360 1.0 8.0 0.00 0.01 0.00 71 1009.7
20190115175333 27 360 2.0 9.0 0.00 0.01 0.00 71 1009.7
20190115175223 27 360 0.0 9.0 0.00 0.01 0.00 71 1009.7
20190115175133 27 360 2.0 9.0 0.00 0.01 0.00 71 1009.7
20190115175028 27 360 3.0 9.0 0.00 0.01 0.00 71 1009.6
20190115174938 27 360 0.0 9.0 0.00 0.01 0.00 71 1009.7
20190115174830 27 360 1.0 9.0 0.00 0.01 0.00 70 1009.6
20190115174729 27 360 2.0 9.0 0.00 0.01 0.00 70 1009.6
20190115174618 27 360 1.0 9.0 0.00 0.01 0.00 70 1009.5
20190115174529 27 360 1.0 9.0 0.00 0.01 0.00 70 1009.5
20190115174419 27 360 7.0 11.0 0.00 0.01 0.00 70 1009.6
20190115174334 27 360 5.0 11.0 0.00 0.01 0.00 70 1009.6
20190115174223 27 360 2.0 11.0 0.00 0.01 0.00 70 1009.5
20190115174132 27 360 2.0 11.0 0.00 0.01 0.00 70 1009.5
20190115174023 27 360 5.0 11.0 0.00 0.01 0.00 70 1009.5
20190115173933 27 360 5.0 11.0 0.00 0.01 0.00 70 1009.5
20190115173825 27 360 4.0 11.0 0.00 0.01 0.00 70 1009.6
20190115173735 27 360 3.0 11.0 0.00 0.01 0.00 70 1009.6
20190115173624 27 360 6.0 11.0 0.00 0.01 0.00 70 1009.6
20190115173535 27 360 4.0 7.0 0.00 0.01 0.00 70 1009.6
20190115173425 27 360 1.0 6.0 0.00 0.01 0.00 70 1009.6
20190115173339 27 360 2.0 6.0 0.00 0.01 0.00 70 1009.6
20190115173223 27 5 1.0 6.0 0.00 0.01 0.00 70 1009.6
20190115173133 27 360 1.0 6.0 0.00 0.01 0.00 70 1009.6
20190115173021 27 9 0.0 6.0 0.00 0.01 0.00 70 1009.6
20190115172931 27 360 0.0 6.0 0.00 0.01 0.00 69 1009.6
20190115172821 27 360 0.0 6.0 0.00 0.01 0.00 69 1009.6
20190115172735 27 360 0.0 6.0 0.00 0.01 0.00 69 1009.6
20190115172624 27 360 2.0 6.0 0.00 0.01 0.00 69 1009.6
20190115172533 27 360 0.0 6.0 0.00 0.01 0.00 69 1009.6
20190115172424 27 360 0.0 6.0 0.00 0.01 0.00 69 1009.6
20190115172334 27 360 0.0 6.0 0.00 0.01 0.00 70 1009.6
20190115172229 27 360 0.0 6.0 0.00 0.01 0.00 70 1009.5
20190115172120 27 360 1.0 6.0 0.00 0.01 0.00 69 1009.5
20190115172030 27 360 2.0 6.0 0.00 0.01 0.00 69 1009.5
20190115171919 27 360 3.0 8.0 0.00 0.01 0.00 69 1009.4
20190115171832 27 360 1.0 8.0 0.00 0.01 0.00 69 1009.4
20190115171734 28 360 2.0 9.0 0.00 0.01 0.00 69 1009.5
20190115171624 28 360 2.0 9.0 0.00 0.01 0.00 69 1009.5
20190115171535 28 360 1.0 9.0 0.00 0.01 0.00 69 1009.5
20190115171424 28 360 0.0 9.0 0.00 0.01 0.00 69 1009.4
20190115171334 28 360 1.0 9.0 0.00 0.01 0.00 69 1009.4
20190115171224 28 360 1.0 9.0 0.00 0.01 0.00 69 1009.4
20190115171118 28 360 4.0 9.0 0.00 0.01 0.00 69 1009.4
20190115171027 28 360 5.0 9.0 0.00 0.01 0.00 69 1009.4
20190115170918 28 360 5.0 9.0 0.00 0.01 0.00 69 1009.3
20190115170829 28 360 2.0 7.0 0.00 0.01 0.00 69 1009.3
20190115170719 28 360 3.0 7.0 0.00 0.01 0.00 69 1009.3
20190115170632 28 360 2.0 7.0 0.00 0.01 0.00 69 1009.3
20190115170521 28 360 1.0 6.0 0.00 0.01 0.00 69 1009.3
20190115170430 28 5 0.0 6.0 0.00 0.01 0.00 69 1009.3
20190115170343 28 5 1.0 6.0 0.00 0.01 0.00 69 1009.3
20190115170223 28 17 1.0 6.0 0.00 0.01 0.00 69 1009.3
20190115170117 28 17 1.0 6.0 0.00 0.01 0.00 69 1009.3
20190115170027 28 17 1.0 6.0 0.00 0.01 0.00 69 1009.2
20190115165917 28 360 1.0 6.0 0.00 0.01 0.00 69 1009.2
20190115165827 28 360 1.0 6.0 0.00 0.01 0.00 69 1009.3
20190115165717 28 11 4.0 6.0 0.00 0.01 0.00 69 1009.2
20190115165631 28 360 4.0 6.0 0.00 0.01 0.00 69 1009.2
20190115165521 28 360 0.0 6.0 0.00 0.01 0.00 69 1009.3
20190115165431 28 360 0.0 6.0 0.00 0.01 0.00 69 1009.3
20190115165321 28 360 0.0 6.0 0.00 0.01 0.00 69 1009.2
20190115165230 28 360 0.0 6.0 0.00 0.01 0.00 69 1009.2
20190115165121 28 360 1.0 6.0 0.00 0.01 0.00 69 1009.1
20190115165036 28 360 2.0 6.0 0.00 0.01 0.00 69 1009.1
20190115164925 28 360 1.0 6.0 0.00 0.01 0.00 70 1009.1
20190115164838 28 360 1.0 6.0 0.00 0.01 0.00 70 1009.1
20190115164736 28 360 3.0 7.0 0.00 0.01 0.00 69 1009.1
20190115164626 28 360 1.0 7.0 0.00 0.01 0.00 69 1009.0
20190115164517 28 360 1.0 7.0 0.00 0.01 0.00 70 1009.0
20190115164431 28 360 1.0 7.0 0.00 0.01 0.00 70 1009.0
20190115164321 28 360 2.0 7.0 0.00 0.01 0.00 70 1009.1
20190115164230 28 360 4.0 7.0 0.00 0.01 0.00 70 1009.1
20190115164119 28 360 1.0 7.0 0.00 0.01 0.00 70 1009.0
20190115164029 28 360 3.0 7.0 0.00 0.01 0.00 70 1009.0
20190115163919 28 360 4.0 7.0 0.00 0.01 0.00 70 1009.0
20190115163833 28 360 2.0 6.0 0.00 0.01 0.00 70 1009.0
20190115163722 28 360 2.0 5.0 0.00 0.01 0.00 70 1009.1
20190115163633 28 360 1.0 5.0 0.00 0.01 0.00 70 1009.1